Time,TemperatureF,DewpointF,PressureIn,WindDirection,WindDirectionDegrees,WindSpeedMPH,WindSpeedGustMPH,Humidity,HourlyPrecipIn,Conditions,Clouds,dailyrainin,SoftwareType,DateUTC
2013-05-14 00:01:00,69.6,54.2,30.04,WSW,248,4.4,4.4,58,0.00,,,0.00,WUHU215HW,2013-05-14 05:01:00,
2013-05-14 00:03:00,69.6,54.2,30.04,West,270,2.4,4.4,58,0.00,,,0.00,WUHU215HW,2013-05-14 05:03:00,
2013-05-14 00:04:00,69.6,54.2,30.04,West,260,2.0,4.4,58,0.00,,,0.00,WUHU215HW,2013-05-14 05:04:00,
2013-05-14 00:05:00,69.6,54.2,30.04,WSW,245,1.7,4.4,58,0.00,,,0.00,WUHU215HW,2013-05-14 05:05:00,
2013-05-14 00:06:00,69.6,54.2,30.04,SW,225,1.5,4.4,58,0.00,,,0.00,WUHU215HW,2013-05-14 05:06:00,
2013-05-14 00:10:00,69.4,54.0,30.04,SW,225,1.5,2.4,58,0.00,,,0.00,WUHU215HW,2013-05-14 05:10:00,
2013-05-14 00:12:00,69.4,54.5,30.04,West,270,0.0,2.4,59,0.00,,,0.00,WUHU215HW,2013-05-14 05:12:00,
2013-05-14 00:13:00,69.4,54.5,30.04,SW,225,8.0,8.0,59,0.00,,,0.00,WUHU215HW,2013-05-14 05:13:00,
2013-05-14 00:16:00,69.4,54.5,30.04,SW,225,8.0,8.0,59,0.00,,,0.00,WUHU215HW,2013-05-14 05:16:00,
2013-05-14 00:18:00,69.4,54.5,30.04,SW,219,3.6,8.0,59,0.00,,,0.00,WUHU215HW,2013-05-14 05:18:00,
2013-05-14 00:19:00,69.4,54.5,30.04,SSW,203,1.5,8.0,59,0.00,,,0.00,WUHU215HW,2013-05-14 05:19:00,
2013-05-14 00:21:00,69.2,54.5,30.04,WSW,248,0.4,8.0,59,0.00,,,0.00,WUHU215HW,2013-05-14 05:21:00,
2013-05-14 00:23:00,69.2,54.3,30.04,WSW,248,0.4,8.0,59,0.00,,,0.00,WUHU215HW,2013-05-14 05:23:00,
2013-05-14 00:24:00,69.0,54.3,30.04,SSW,203,2.9,8.0,60,0.00,,,0.00,WUHU215HW,2013-05-14 05:24:00,
2013-05-14 00:26:00,69.0,54.3,30.04,SSW,203,2.9,8.0,60,0.00,,,0.00,WUHU215HW,2013-05-14 05:26:00,
2013-05-14 00:29:00,69.0,54.3,30.04,SW,225,2.2,2.9,60,0.00,,,0.00,WUHU215HW,2013-05-14 05:29:00,
2013-05-14 00:30:00,69.0,54.6,30.04,SW,225,2.2,2.9,60,0.00,,,0.00,WUHU215HW,2013-05-14 05:30:00,
2013-05-14 00:31:00,69.0,54.6,30.04,SW,225,2.2,2.9,60,0.00,,,0.00,WUHU215HW,2013-05-14 05:31:00,
2013-05-14 00:33:00,68.9,54.5,30.04,WSW,241,1.1,2.9,60,0.00,,,0.00,WUHU215HW,2013-05-14 05:33:00,
2013-05-14 00:35:00,68.9,54.5,30.04,SW,225,0.8,2.9,60,0.00,,,0.00,WUHU215HW,2013-05-14 05:35:00,
2013-05-14 00:36:00,68.9,54.5,30.04,SSW,203,2.2,2.2,60,0.00,,,0.00,WUHU215HW,2013-05-14 05:36:00,
2013-05-14 00:38:00,68.7,54.3,30.04,SSW,203,2.2,2.2,60,0.00,,,0.00,WUHU215HW,2013-05-14 05:38:00,
2013-05-14 00:39:00,68.7,54.7,30.04,SSW,203,2.2,2.2,61,0.00,,,0.00,WUHU215HW,2013-05-14 05:39:00,
2013-05-14 00:40:00,68.7,54.7,30.04,SSW,203,2.2,2.2,61,0.00,,,0.00,WUHU215HW,2013-05-14 05:40:00,
2013-05-14 00:41:00,68.7,54.7,30.04,SW,225,2.6,2.6,61,0.00,,,0.00,WUHU215HW,2013-05-14 05:41:00,
2013-05-14 00:43:00,68.7,54.7,30.04,South,180,3.8,3.8,61,0.00,,,0.00,WUHU215HW,2013-05-14 05:43:00,
2013-05-14 00:44:00,68.7,54.7,30.04,South,180,3.8,3.8,61,0.00,,,0.00,WUHU215HW,2013-05-14 05:44:00,
2013-05-14 00:46:00,68.7,54.7,30.04,SW,225,3.8,3.8,61,0.00,,,0.00,WUHU215HW,2013-05-14 05:46:00,
2013-05-14 00:49:00,68.7,54.7,30.04,SW,225,2.4,3.8,61,0.00,,,0.00,WUHU215HW,2013-05-14 05:49:00,
2013-05-14 00:50:00,68.7,54.7,30.04,SW,225,2.3,3.8,61,0.00,,,0.00,WUHU215HW,2013-05-14 05:50:00,
2013-05-14 00:51:00,68.7,54.7,30.04,SW,225,2.1,3.8,61,0.00,,,0.00,WUHU215HW,2013-05-14 05:51:00,
2013-05-14 00:52:00,68.7,54.7,30.04,SW,225,2.0,3.8,61,0.00,,,0.00,WUHU215HW,2013-05-14 05:52:00,
2013-05-14 00:53:00,68.7,54.7,30.04,SW,225,2.0,3.8,61,0.00,,,0.00,WUHU215HW,2013-05-14 05:53:00,
2013-05-14 00:56:00,68.7,54.9,30.04,SSW,203,3.8,3.8,62,0.00,,,0.00,WUHU215HW,2013-05-14 05:56:00,
2013-05-14 00:57:00,68.7,54.9,30.04,SSW,203,3.8,3.8,62,0.00,,,0.00,WUHU215HW,2013-05-14 05:57:00,
2013-05-14 00:58:00,68.5,54.9,30.04,SE,135,4.0,4.0,62,0.00,,,0.00,WUHU215HW,2013-05-14 05:58:00,
2013-05-14 00:59:00,68.5,54.9,30.04,SE,135,4.0,4.0,62,0.00,,,0.00,WUHU215HW,2013-05-14 05:59:00,
2013-05-14 01:01:00,68.5,54.9,30.04,SE,135,4.0,4.0,62,0.00,,,0.00,WUHU215HW,2013-05-14 06:01:00,
2013-05-14 01:03:00,68.5,54.9,30.04,WSW,248,3.8,4.0,62,0.00,,,0.00,WUHU215HW,2013-05-14 06:03:00,
2013-05-14 01:04:00,68.5,54.9,30.04,WSW,248,3.8,4.0,62,0.00,,,0.00,WUHU215HW,2013-05-14 06:04:00,
2013-05-14 01:06:00,68.3,55.2,30.04,WSW,239,2.0,4.0,63,0.00,,,0.00,WUHU215HW,2013-05-14 06:06:00,
2013-05-14 01:08:00,68.3,55.2,30.04,SW,225,1.1,4.0,63,0.00,,,0.00,WUHU215HW,2013-05-14 06:08:00,
2013-05-14 01:09:00,68.3,55.2,30.04,South,180,3.1,4.0,63,0.00,,,0.00,WUHU215HW,2013-05-14 06:09:00,
2013-05-14 01:10:00,68.3,55.2,30.04,South,180,3.1,4.0,63,0.00,,,0.00,WUHU215HW,2013-05-14 06:10:00,
2013-05-14 01:13:00,68.1,55.0,30.04,SW,225,3.8,3.8,63,0.00,,,0.00,WUHU215HW,2013-05-14 06:13:00,
2013-05-14 01:14:00,68.1,55.0,30.04,SW,225,3.8,3.8,63,0.00,,,0.00,WUHU215HW,2013-05-14 06:14:00,
2013-05-14 01:15:00,68.1,55.0,30.04,SW,225,7.1,7.1,63,0.00,,,0.00,WUHU215HW,2013-05-14 06:15:00,
2013-05-14 01:16:00,68.1,55.0,30.04,SW,225,7.1,7.1,63,0.00,,,0.00,WUHU215HW,2013-05-14 06:16:00,
2013-05-14 01:19:00,68.1,55.4,30.04,SSE,158,0.0,7.1,64,0.00,,,0.00,WUHU215HW,2013-05-14 06:19:00,
2013-05-14 01:20:00,68.1,55.4,30.04,SSE,158,0.0,7.1,64,0.00,,,0.00,WUHU215HW,2013-05-14 06:20:00,
2013-05-14 01:21:00,68.1,55.4,30.04,SSE,158,0.0,7.1,64,0.00,,,0.00,WUHU215HW,2013-05-14 06:21:00,
2013-05-14 01:23:00,67.8,55.1,30.04,SW,225,2.6,7.1,64,0.00,,,0.00,WUHU215HW,2013-05-14 06:23:00,
2013-05-14 01:26:00,67.8,55.1,30.04,SW,225,2.0,7.1,64,0.00,,,0.00,WUHU215HW,2013-05-14 06:26:00,
2013-05-14 01:27:00,67.8,55.1,30.04,SW,225,2.0,2.6,64,0.00,,,0.00,WUHU215HW,2013-05-14 06:27:00,
2013-05-14 01:29:00,67.8,55.1,30.04,SW,225,2.0,2.6,64,0.00,,,0.00,WUHU215HW,2013-05-14 06:29:00,
2013-05-14 01:32:00,67.8,55.1,30.04,WSW,248,3.1,3.1,64,0.00,,,0.00,WUHU215HW,2013-05-14 06:32:00,
2013-05-14 01:33:00,67.8,55.1,30.04,WSW,248,3.1,3.1,64,0.00,,,0.00,WUHU215HW,2013-05-14 06:33:00,
2013-05-14 01:34:00,67.8,55.1,30.04,WSW,244,2.2,3.1,64,0.00,,,0.00,WUHU215HW,2013-05-14 06:34:00,
2013-05-14 01:37:00,67.6,55.4,30.04,SW,225,5.8,5.8,65,0.00,,,0.00,WUHU215HW,2013-05-14 06:37:00,
2013-05-14 01:39:00,67.6,55.4,30.04,SW,225,5.8,5.8,65,0.00,,,0.00,WUHU215HW,2013-05-14 06:39:00,
2013-05-14 01:42:00,67.6,55.4,30.04,SW,225,3.8,5.8,65,0.00,,,0.00,WUHU215HW,2013-05-14 06:42:00,
2013-05-14 01:43:00,67.4,55.4,30.04,SW,227,2.6,5.8,65,0.00,,,0.00,WUHU215HW,2013-05-14 06:43:00,
2013-05-14 01:44:00,67.4,55.4,30.04,SW,232,1.5,5.8,65,0.00,,,0.00,WUHU215HW,2013-05-14 06:44:00,
2013-05-14 01:45:00,67.2,55.4,30.04,West,270,0.4,5.8,65,0.00,,,0.00,WUHU215HW,2013-05-14 06:45:00,
2013-05-14 01:48:00,67.2,55.0,30.04,SW,225,0.0,5.8,65,0.00,,,0.00,WUHU215HW,2013-05-14 06:48:00,
2013-05-14 01:49:00,67.2,55.4,30.04,SW,225,0.0,3.8,66,0.00,,,0.00,WUHU215HW,2013-05-14 06:49:00,
2013-05-14 01:50:00,67.2,55.4,30.04,SW,225,0.0,3.8,66,0.00,,,0.00,WUHU215HW,2013-05-14 06:50:00,
2013-05-14 01:53:00,67.1,55.3,30.04,SSE,158,2.4,2.4,66,0.00,,,0.00,WUHU215HW,2013-05-14 06:53:00,
2013-05-14 01:56:00,66.9,55.1,30.04,SW,225,1.7,2.4,66,0.00,,,0.00,WUHU215HW,2013-05-14 06:56:00,
2013-05-14 01:58:00,66.9,55.5,30.04,SSW,203,2.2,2.4,67,0.00,,,0.00,WUHU215HW,2013-05-14 06:58:00,
2013-05-14 02:00:00,66.7,55.4,30.04,SSW,203,5.3,5.3,67,0.00,,,0.00,WUHU215HW,2013-05-14 07:00:00,
2013-05-14 02:01:00,66.7,55.4,30.04,SSW,203,5.3,5.3,67,0.00,,,0.00,WUHU215HW,2013-05-14 07:01:00,
2013-05-14 02:03:00,66.7,55.4,30.04,SW,225,6.9,6.9,67,0.00,,,0.00,WUHU215HW,2013-05-14 07:03:00,
2013-05-14 02:05:00,66.7,55.4,30.04,SW,225,6.9,6.9,67,0.00,,,0.00,WUHU215HW,2013-05-14 07:05:00,
2013-05-14 02:06:00,66.7,55.4,30.04,South,180,1.3,6.9,67,0.00,,,0.00,WUHU215HW,2013-05-14 07:06:00,
2013-05-14 02:07:00,66.7,55.4,30.04,South,180,1.3,6.9,67,0.00,,,0.00,WUHU215HW,2013-05-14 07:07:00,
2013-05-14 02:12:00,66.7,55.4,30.04,South,180,6.0,6.9,67,0.00,,,0.00,WUHU215HW,2013-05-14 07:12:00,
2013-05-14 02:14:00,66.5,55.6,30.04,South,180,2.5,6.0,68,0.00,,,0.00,WUHU215HW,2013-05-14 07:14:00,
2013-05-14 02:16:00,66.5,55.6,30.04,South,180,0.8,6.0,68,0.00,,,0.00,WUHU215HW,2013-05-14 07:16:00,
2013-05-14 02:18:00,66.5,55.6,30.04,South,180,0.8,6.0,68,0.00,,,0.00,WUHU215HW,2013-05-14 07:18:00,
2013-05-14 02:19:00,66.5,55.6,30.04,SSE,158,0.0,6.0,68,0.00,,,0.00,WUHU215HW,2013-05-14 07:19:00,
2013-05-14 02:21:00,66.5,55.6,30.04,SSW,203,0.8,6.0,68,0.00,,,0.00,WUHU215HW,2013-05-14 07:21:00,
2013-05-14 02:22:00,66.5,55.6,30.04,SSW,203,0.8,6.0,68,0.00,,,0.00,WUHU215HW,2013-05-14 07:22:00,
2013-05-14 02:23:00,66.5,55.6,30.04,SSW,203,0.8,0.8,68,0.00,,,0.00,WUHU215HW,2013-05-14 07:23:00,
2013-05-14 02:28:00,66.0,55.6,30.04,South,180,4.4,4.4,68,0.00,,,0.00,WUHU215HW,2013-05-14 07:28:00,
2013-05-14 02:29:00,66.0,55.6,30.04,South,180,4.4,4.4,68,0.00,,,0.00,WUHU215HW,2013-05-14 07:29:00,
2013-05-14 02:30:00,66.0,55.1,30.04,South,180,4.4,4.4,68,0.00,,,0.00,WUHU215HW,2013-05-14 07:30:00,
2013-05-14 02:34:00,66.0,55.5,30.04,SSE,158,2.2,4.4,69,0.00,,,0.00,WUHU215HW,2013-05-14 07:34:00,
2013-05-14 02:35:00,66.0,55.5,30.04,SSE,158,2.2,4.4,69,0.00,,,0.00,WUHU215HW,2013-05-14 07:35:00,
2013-05-14 02:38:00,66.0,55.5,30.04,SSW,203,1.3,4.4,69,0.00,,,0.00,WUHU215HW,2013-05-14 07:38:00,
2013-05-14 02:40:00,66.0,55.5,30.04,SW,224,0.8,4.4,69,0.00,,,0.00,WUHU215HW,2013-05-14 07:40:00,
2013-05-14 02:42:00,65.8,55.5,30.04,WSW,248,0.6,2.2,69,0.00,,,0.00,WUHU215HW,2013-05-14 07:42:00,
2013-05-14 02:44:00,65.8,55.5,30.04,South,180,0.0,2.2,69,0.00,,,0.00,WUHU215HW,2013-05-14 07:44:00,
2013-05-14 02:45:00,65.6,55.5,30.04,SSW,203,0.0,2.2,69,0.00,,,0.00,WUHU215HW,2013-05-14 07:45:00,
2013-05-14 02:47:00,65.4,55.5,30.04,SSW,203,0.0,1.3,69,0.00,,,0.00,WUHU215HW,2013-05-14 07:47:00,
2013-05-14 02:49:00,65.4,55.0,30.04,WSW,248,1.7,1.7,69,0.00,,,0.00,WUHU215HW,2013-05-14 07:49:00,
2013-05-14 02:52:00,65.4,55.4,30.04,WSW,248,1.2,1.7,70,0.00,,,0.00,WUHU215HW,2013-05-14 07:52:00,
2013-05-14 02:53:00,65.4,55.4,30.04,WSW,248,0.7,1.7,70,0.00,,,0.00,WUHU215HW,2013-05-14 07:53:00,
2013-05-14 02:54:00,65.4,55.4,30.04,WSW,248,2.6,2.6,70,0.00,,,0.00,WUHU215HW,2013-05-14 07:54:00,
2013-05-14 02:58:00,65.3,55.3,30.04,SSE,158,0.0,2.6,70,0.00,,,0.00,WUHU215HW,2013-05-14 07:58:00,
2013-05-14 02:59:00,65.3,55.3,30.04,SSE,158,0.0,2.6,70,0.00,,,0.00,WUHU215HW,2013-05-14 07:59:00,
2013-05-14 03:00:00,65.3,55.3,30.04,SSE,158,0.0,2.6,70,0.00,,,0.00,WUHU215HW,2013-05-14 08:00:00,
2013-05-14 03:01:00,65.3,55.3,30.04,SSE,158,0.0,2.6,70,0.00,,,0.00,WUHU215HW,2013-05-14 08:01:00,
2013-05-14 03:03:00,65.1,55.1,30.04,South,180,1.7,2.6,70,0.00,,,0.00,WUHU215HW,2013-05-14 08:03:00,
2013-05-14 03:05:00,65.1,55.5,30.04,South,180,1.7,2.6,71,0.00,,,0.00,WUHU215HW,2013-05-14 08:05:00,
2013-05-14 03:06:00,65.1,55.5,30.04,WSW,248,0.0,1.7,71,0.00,,,0.00,WUHU215HW,2013-05-14 08:06:00,
2013-05-14 03:07:00,65.1,55.5,30.04,WSW,248,0.0,1.7,71,0.00,,,0.00,WUHU215HW,2013-05-14 08:07:00,
2013-05-14 03:08:00,64.9,55.5,30.04,WSW,248,0.0,1.7,71,0.00,,,0.00,WUHU215HW,2013-05-14 08:08:00,
2013-05-14 03:11:00,64.9,55.3,30.04,WSW,248,6.9,6.9,71,0.00,,,0.00,WUHU215HW,2013-05-14 08:11:00,
2013-05-14 03:12:00,64.9,55.3,30.04,WSW,248,6.9,6.9,71,0.00,,,0.00,WUHU215HW,2013-05-14 08:12:00,
2013-05-14 03:14:00,64.9,55.3,30.04,SW,222,2.1,6.9,71,0.00,,,0.00,WUHU215HW,2013-05-14 08:14:00,
2013-05-14 03:15:00,64.9,55.3,30.04,SW,225,5.5,6.9,71,0.00,,,0.00,WUHU215HW,2013-05-14 08:15:00,
2013-05-14 03:17:00,64.9,55.7,30.04,SW,224,3.9,6.9,72,0.00,,,0.00,WUHU215HW,2013-05-14 08:17:00,
2013-05-14 03:18:00,64.9,55.7,30.04,SW,220,2.3,6.9,72,0.00,,,0.00,WUHU215HW,2013-05-14 08:18:00,
2013-05-14 03:21:00,64.7,55.5,30.04,South,180,0.0,6.9,72,0.00,,,0.00,WUHU215HW,2013-05-14 08:21:00,
2013-05-14 03:25:00,64.5,55.3,30.04,South,180,3.3,5.5,72,0.00,,,0.00,WUHU215HW,2013-05-14 08:25:00,
2013-05-14 03:27:00,64.5,55.3,30.04,South,180,3.3,3.3,72,0.00,,,0.00,WUHU215HW,2013-05-14 08:27:00,
2013-05-14 03:28:00,64.5,55.3,30.04,SW,225,0.0,3.3,72,0.00,,,0.00,WUHU215HW,2013-05-14 08:28:00,
2013-05-14 03:29:00,64.5,55.3,30.04,SW,225,0.0,3.3,72,0.00,,,0.00,WUHU215HW,2013-05-14 08:29:00,
2013-05-14 03:32:00,64.4,55.3,30.04,South,180,2.0,3.3,72,0.00,,,0.00,WUHU215HW,2013-05-14 08:32:00,
2013-05-14 03:33:00,64.4,55.2,30.04,South,180,2.0,3.3,72,0.00,,,0.00,WUHU215HW,2013-05-14 08:33:00,
2013-05-14 03:35:00,64.2,55.0,30.04,South,188,1.0,3.3,72,0.00,,,0.00,WUHU215HW,2013-05-14 08:35:00,
2013-05-14 03:37:00,64.2,55.0,30.04,SW,225,2.9,2.9,72,0.00,,,0.00,WUHU215HW,2013-05-14 08:37:00,
2013-05-14 03:38:00,64.2,55.0,30.04,SW,225,2.9,2.9,72,0.00,,,0.00,WUHU215HW,2013-05-14 08:38:00,
2013-05-14 03:43:00,64.0,55.0,30.04,SSW,203,4.6,6.7,73,0.00,,,0.00,WUHU215HW,2013-05-14 08:43:00,
2013-05-14 03:44:00,64.0,55.0,30.04,SSW,203,2.5,6.7,73,0.00,,,0.00,WUHU215HW,2013-05-14 08:44:00,
2013-05-14 03:45:00,64.0,55.0,30.04,SSW,203,0.4,6.7,73,0.00,,,0.00,WUHU215HW,2013-05-14 08:45:00,
2013-05-14 03:46:00,64.0,55.0,30.04,SSW,203,0.4,6.7,73,0.00,,,0.00,WUHU215HW,2013-05-14 08:46:00,
2013-05-14 03:48:00,64.0,55.2,30.04,West,270,0.0,6.7,73,0.00,,,0.00,WUHU215HW,2013-05-14 08:48:00,
2013-05-14 03:51:00,64.0,55.2,30.04,SSW,203,2.0,6.7,73,0.00,,,0.00,WUHU215HW,2013-05-14 08:51:00,
2013-05-14 03:52:00,64.0,55.2,30.04,SSW,203,2.0,6.7,73,0.00,,,0.00,WUHU215HW,2013-05-14 08:52:00,
2013-05-14 03:54:00,63.8,55.0,30.04,SSW,205,1.5,2.0,73,0.00,,,0.00,WUHU215HW,2013-05-14 08:54:00,
2013-05-14 03:56:00,63.6,54.8,30.04,South,180,1.3,2.0,73,0.00,,,0.00,WUHU215HW,2013-05-14 08:56:00,
2013-05-14 03:59:00,63.6,54.8,30.04,South,180,1.3,2.0,74,0.00,,,0.00,WUHU215HW,2013-05-14 08:59:00,
2013-05-14 04:00:00,63.6,54.8,30.04,WSW,248,0.0,2.0,74,0.00,,,0.00,WUHU215HW,2013-05-14 09:00:00,
2013-05-14 04:02:00,63.6,54.8,30.04,SW,225,0.0,2.0,74,0.00,,,0.00,WUHU215HW,2013-05-14 09:02:00,
2013-05-14 04:03:00,63.6,54.8,30.04,SW,225,0.0,2.0,74,0.00,,,0.00,WUHU215HW,2013-05-14 09:03:00,
2013-05-14 04:05:00,63.5,55.0,30.04,South,180,6.9,6.9,74,0.00,,,0.00,WUHU215HW,2013-05-14 09:05:00,
2013-05-14 04:07:00,63.5,55.0,30.04,South,190,4.0,6.9,74,0.00,,,0.00,WUHU215HW,2013-05-14 09:07:00,
2013-05-14 04:08:00,63.5,54.8,30.04,SSW,203,2.6,6.9,74,0.00,,,0.00,WUHU215HW,2013-05-14 09:08:00,
2013-05-14 04:10:00,63.3,54.8,30.04,WSW,248,0.0,6.9,74,0.00,,,0.00,WUHU215HW,2013-05-14 09:10:00,
2013-05-14 04:11:00,63.3,54.8,30.04,SSW,203,0.0,6.9,74,0.00,,,0.00,WUHU215HW,2013-05-14 09:11:00,
2013-05-14 04:13:00,63.1,55.0,30.04,SW,225,0.0,6.9,75,0.00,,,0.00,WUHU215HW,2013-05-14 09:13:00,
2013-05-14 04:14:00,63.1,55.0,30.04,SW,225,0.0,6.9,75,0.00,,,0.00,WUHU215HW,2013-05-14 09:14:00,
2013-05-14 04:15:00,63.1,55.0,30.04,SW,225,0.0,6.9,75,0.00,,,0.00,WUHU215HW,2013-05-14 09:15:00,
2013-05-14 04:16:00,63.1,55.0,30.04,SW,225,0.0,2.6,75,0.00,,,0.00,WUHU215HW,2013-05-14 09:16:00,
2013-05-14 04:20:00,63.1,55.0,30.04,WSW,248,0.6,0.6,75,0.00,,,0.00,WUHU215HW,2013-05-14 09:20:00,
2013-05-14 04:21:00,63.1,55.0,30.04,WSW,248,0.6,0.6,75,0.00,,,0.00,WUHU215HW,2013-05-14 09:21:00,
2013-05-14 04:23:00,62.9,54.8,30.04,WSW,248,0.6,0.6,75,0.00,,,0.00,WUHU215HW,2013-05-14 09:23:00,
2013-05-14 04:27:00,62.7,55.0,30.04,SSW,203,4.0,4.0,76,0.00,,,0.00,WUHU215HW,2013-05-14 09:27:00,
2013-05-14 04:28:00,62.7,55.0,30.04,West,270,5.5,5.5,76,0.00,,,0.00,WUHU215HW,2013-05-14 09:28:00,
2013-05-14 04:29:00,62.7,55.0,30.04,West,270,5.5,5.5,76,0.00,,,0.00,WUHU215HW,2013-05-14 09:29:00,
2013-05-14 04:31:00,62.7,55.0,30.04,West,270,5.5,5.5,76,0.00,,,0.00,WUHU215HW,2013-05-14 09:31:00,
2013-05-14 04:32:00,62.7,55.0,30.04,SSW,203,0.0,5.5,76,0.00,,,0.00,WUHU215HW,2013-05-14 09:32:00,
2013-05-14 04:33:00,62.7,55.0,30.04,SSW,203,0.0,5.5,76,0.00,,,0.00,WUHU215HW,2013-05-14 09:33:00,
2013-05-14 04:35:00,62.6,54.8,30.04,SW,225,0.0,5.5,76,0.00,,,0.00,WUHU215HW,2013-05-14 09:35:00,
2013-05-14 04:37:00,62.6,54.8,30.04,West,270,0.0,5.5,76,0.00,,,0.00,WUHU215HW,2013-05-14 09:37:00,
2013-05-14 04:38:00,62.4,55.0,30.04,West,270,0.0,5.5,77,0.00,,,0.00,WUHU215HW,2013-05-14 09:38:00,
2013-05-14 04:39:00,62.4,55.0,30.04,West,270,0.0,5.5,77,0.00,,,0.00,WUHU215HW,2013-05-14 09:39:00,
2013-05-14 04:42:00,62.4,55.0,30.04,WSW,248,2.4,2.4,77,0.00,,,0.00,WUHU215HW,2013-05-14 09:42:00,
2013-05-14 04:43:00,62.2,54.8,30.04,WSW,248,2.4,2.4,77,0.00,,,0.00,WUHU215HW,2013-05-14 09:43:00,
2013-05-14 04:44:00,62.2,54.8,30.04,WSW,248,2.4,2.4,77,0.00,,,0.00,WUHU215HW,2013-05-14 09:44:00,
2013-05-14 04:45:00,62.2,54.8,30.04,WSW,248,2.4,2.4,77,0.00,,,0.00,WUHU215HW,2013-05-14 09:45:00,
2013-05-14 04:49:00,61.8,54.5,30.04,SSW,203,1.7,2.4,77,0.00,,,0.00,WUHU215HW,2013-05-14 09:49:00,
2013-05-14 04:50:00,61.8,54.5,30.04,SSW,203,1.7,2.4,77,0.00,,,0.00,WUHU215HW,2013-05-14 09:50:00,
2013-05-14 04:51:00,61.8,54.5,30.04,SSW,203,1.7,2.4,77,0.00,,,0.00,WUHU215HW,2013-05-14 09:51:00,
2013-05-14 04:55:00,61.8,54.9,30.04,SSW,193,0.9,1.7,78,0.00,,,0.00,WUHU215HW,2013-05-14 09:55:00,
2013-05-14 04:56:00,61.8,54.9,30.04,South,180,0.6,1.7,78,0.00,,,0.00,WUHU215HW,2013-05-14 09:56:00,
2013-05-14 04:57:00,61.8,54.9,30.04,South,180,0.6,1.7,78,0.00,,,0.00,WUHU215HW,2013-05-14 09:57:00,
2013-05-14 04:59:00,61.8,54.9,30.04,SSW,203,4.6,4.6,78,0.00,,,0.00,WUHU215HW,2013-05-14 09:59:00,
2013-05-14 05:02:00,61.7,54.9,30.04,SW,225,2.4,4.6,79,0.00,,,0.00,WUHU215HW,2013-05-14 10:02:00,
2013-05-14 05:05:00,61.7,55.1,30.04,WSW,248,0.6,4.6,79,0.00,,,0.00,WUHU215HW,2013-05-14 10:05:00,
2013-05-14 05:06:00,61.7,55.1,30.04,WSW,248,0.6,4.6,79,0.00,,,0.00,WUHU215HW,2013-05-14 10:06:00,
2013-05-14 05:08:00,61.7,55.1,30.04,WSW,248,0.6,4.6,79,0.00,,,0.00,WUHU215HW,2013-05-14 10:08:00,
2013-05-14 05:10:00,61.7,55.1,30.04,SSW,203,2.2,2.4,79,0.00,,,0.00,WUHU215HW,2013-05-14 10:10:00,
2013-05-14 05:11:00,61.7,55.1,30.04,SSW,203,2.2,2.4,79,0.00,,,0.00,WUHU215HW,2013-05-14 10:11:00,
2013-05-14 05:12:00,61.7,55.1,30.04,SSW,203,2.2,2.2,79,0.00,,,0.00,WUHU215HW,2013-05-14 10:12:00,
2013-05-14 05:13:00,61.7,55.1,30.04,South,189,2.0,2.2,79,0.00,,,0.00,WUHU215HW,2013-05-14 10:13:00,
2013-05-14 05:16:00,61.7,55.1,30.04,SSE,158,2.0,2.2,79,0.00,,,0.00,WUHU215HW,2013-05-14 10:16:00,
2013-05-14 05:18:00,61.7,55.1,30.04,SSW,203,0.6,2.2,79,0.00,,,0.00,WUHU215HW,2013-05-14 10:18:00,
2013-05-14 05:19:00,61.7,54.9,30.04,SSW,203,0.6,2.2,79,0.00,,,0.00,WUHU215HW,2013-05-14 10:19:00,
2013-05-14 05:21:00,61.5,54.9,30.04,WSW,248,0.0,2.2,79,0.00,,,0.00,WUHU215HW,2013-05-14 10:21:00,
2013-05-14 05:25:00,61.5,54.9,30.04,SSE,158,0.6,0.6,79,0.00,,,0.00,WUHU215HW,2013-05-14 10:25:00,
2013-05-14 05:26:00,61.5,55.3,30.04,SSE,158,0.6,0.6,80,0.00,,,0.00,WUHU215HW,2013-05-14 10:26:00,
2013-05-14 05:27:00,61.5,55.3,30.04,SSE,158,0.6,0.6,80,0.00,,,0.00,WUHU215HW,2013-05-14 10:27:00,
2013-05-14 05:29:00,61.5,55.3,30.04,SW,225,0.0,0.6,80,0.00,,,0.00,WUHU215HW,2013-05-14 10:29:00,
2013-05-14 05:32:00,61.5,55.3,30.04,SW,225,3.1,3.1,80,0.00,,,0.00,WUHU215HW,2013-05-14 10:32:00,
2013-05-14 05:34:00,61.5,55.3,30.04,SW,225,3.1,3.1,80,0.00,,,0.00,WUHU215HW,2013-05-14 10:34:00,
2013-05-14 05:35:00,61.5,55.3,30.04,SW,225,3.1,3.1,80,0.00,,,0.00,WUHU215HW,2013-05-14 10:35:00,
2013-05-14 05:38:00,61.5,55.3,30.04,SW,225,3.1,3.1,80,0.00,,,0.00,WUHU215HW,2013-05-14 10:38:00,
2013-05-14 05:39:00,61.5,55.3,30.04,SW,225,3.1,3.1,80,0.00,,,0.00,WUHU215HW,2013-05-14 10:39:00,
2013-05-14 05:41:00,61.5,55.3,30.04,SW,225,3.1,3.1,80,0.00,,,0.00,WUHU215HW,2013-05-14 10:41:00,
2013-05-14 05:44:00,61.1,55.3,30.04,SSW,210,1.5,3.1,81,0.00,,,0.00,WUHU215HW,2013-05-14 10:44:00,
2013-05-14 05:46:00,61.1,55.3,30.04,South,180,0.8,3.1,81,0.00,,,0.00,WUHU215HW,2013-05-14 10:46:00,
2013-05-14 05:47:00,61.1,55.3,30.04,South,180,0.2,3.1,81,0.00,,,0.00,WUHU215HW,2013-05-14 10:47:00,
2013-05-14 05:48:00,61.1,55.3,30.04,South,180,0.2,3.1,81,0.00,,,0.00,WUHU215HW,2013-05-14 10:48:00,
2013-05-14 05:51:00,61.1,55.3,30.04,South,180,0.2,3.1,81,0.00,,,0.00,WUHU215HW,2013-05-14 10:51:00,
2013-05-14 05:52:00,61.1,55.3,30.04,South,180,0.2,3.1,81,0.00,,,0.00,WUHU215HW,2013-05-14 10:52:00,
2013-05-14 05:55:00,60.9,55.3,30.04,SSE,158,0.0,0.2,81,0.00,,,0.00,WUHU215HW,2013-05-14 10:55:00,
2013-05-14 05:56:00,60.9,55.1,30.04,SSE,158,0.0,0.2,81,0.00,,,0.00,WUHU215HW,2013-05-14 10:56:00,
2013-05-14 05:57:00,60.9,55.1,30.04,SSE,158,0.0,0.2,81,0.00,,,0.00,WUHU215HW,2013-05-14 10:57:00,
2013-05-14 06:00:00,60.9,55.1,30.04,West,270,0.0,0.2,81,0.00,,,0.00,WUHU215HW,2013-05-14 11:00:00,
2013-05-14 06:01:00,60.9,55.1,30.04,West,270,0.0,0.2,81,0.00,,,0.00,WUHU215HW,2013-05-14 11:01:00,
2013-05-14 06:02:00,60.9,55.1,30.04,WSW,248,0.8,0.8,81,0.00,,,0.00,WUHU215HW,2013-05-14 11:02:00,
2013-05-14 06:03:00,60.9,55.1,30.04,WSW,248,0.8,0.8,81,0.00,,,0.00,WUHU215HW,2013-05-14 11:03:00,
2013-05-14 06:05:00,60.9,55.1,30.04,WSW,248,0.8,0.8,81,0.00,,,0.00,WUHU215HW,2013-05-14 11:05:00,
2013-05-14 06:06:00,60.9,55.3,30.04,SSW,203,0.8,0.8,81,0.00,,,0.00,WUHU215HW,2013-05-14 11:06:00,
2013-05-14 06:07:00,61.1,55.3,30.04,SSW,203,0.8,0.8,81,0.00,,,0.00,WUHU215HW,2013-05-14 11:07:00,
2013-05-14 06:08:00,61.1,55.1,30.04,SSW,203,0.8,0.8,81,0.00,,,0.00,WUHU215HW,2013-05-14 11:08:00,
2013-05-14 06:12:00,60.9,55.1,30.04,SW,225,0.0,0.8,81,0.00,,,0.00,WUHU215HW,2013-05-14 11:12:00,
2013-05-14 06:13:00,60.9,55.1,30.04,South,180,0.0,0.8,81,0.00,,,0.00,WUHU215HW,2013-05-14 11:13:00,
2013-05-14 06:14:00,60.9,55.1,30.04,South,180,0.0,0.8,81,0.00,,,0.00,WUHU215HW,2013-05-14 11:14:00,
2013-05-14 06:16:00,60.8,55.0,30.04,WSW,248,0.0,0.8,81,0.00,,,0.00,WUHU215HW,2013-05-14 11:16:00,
2013-05-14 06:19:00,60.6,54.8,30.04,SSW,203,8.7,8.7,81,0.00,,,0.00,WUHU215HW,2013-05-14 11:19:00,
2013-05-14 06:20:00,60.6,54.8,30.04,SSW,203,8.7,8.7,81,0.00,,,0.00,WUHU215HW,2013-05-14 11:20:00,
2013-05-14 06:21:00,60.6,54.8,30.04,SSW,203,0.6,8.7,81,0.00,,,0.00,WUHU215HW,2013-05-14 11:21:00,
2013-05-14 06:22:00,60.8,55.0,30.04,SSW,203,0.6,8.7,81,0.00,,,0.00,WUHU215HW,2013-05-14 11:22:00,
2013-05-14 06:23:00,60.8,55.1,30.04,SSW,203,0.6,8.7,81,0.00,,,0.00,WUHU215HW,2013-05-14 11:23:00,
2013-05-14 06:24:00,60.9,55.1,30.04,SW,225,1.1,8.7,81,0.00,,,0.00,WUHU215HW,2013-05-14 11:24:00,
2013-05-14 06:25:00,60.9,55.1,30.04,SW,225,1.1,8.7,81,0.00,,,0.00,WUHU215HW,2013-05-14 11:25:00,
2013-05-14 06:28:00,60.9,55.4,30.04,SW,225,3.3,8.7,82,0.00,,,0.00,WUHU215HW,2013-05-14 11:28:00,
2013-05-14 06:30:00,60.9,55.4,30.04,WSW,248,0.0,3.3,82,0.00,,,0.00,WUHU215HW,2013-05-14 11:30:00,
2013-05-14 06:31:00,60.9,55.4,30.04,WSW,248,0.0,3.3,82,0.00,,,0.00,WUHU215HW,2013-05-14 11:31:00,
2013-05-14 06:34:00,61.1,55.6,30.04,WNW,293,0.0,3.3,82,0.00,,,0.00,WUHU215HW,2013-05-14 11:34:00,
2013-05-14 06:35:00,61.1,55.6,30.04,WNW,293,0.0,3.3,82,0.00,,,0.00,WUHU215HW,2013-05-14 11:35:00,
2013-05-14 06:39:00,61.1,55.6,30.04,SSW,203,2.9,4.6,82,0.00,,,0.00,WUHU215HW,2013-05-14 11:39:00,
2013-05-14 06:41:00,61.1,55.6,30.04,SSW,204,1.4,4.6,82,0.00,,,0.00,WUHU215HW,2013-05-14 11:41:00,
2013-05-14 06:42:00,61.1,55.6,30.04,SSW,210,0.8,4.6,82,0.00,,,0.00,WUHU215HW,2013-05-14 11:42:00,
2013-05-14 06:43:00,61.3,55.4,30.04,WSW,248,0.2,4.6,81,0.00,,,0.00,WUHU215HW,2013-05-14 11:43:00,
2013-05-14 06:46:00,61.3,55.4,30.04,SW,225,0.0,4.6,81,0.00,,,0.00,WUHU215HW,2013-05-14 11:46:00,
2013-05-14 06:47:00,61.3,55.4,30.04,NW,315,0.0,4.6,81,0.00,,,0.00,WUHU215HW,2013-05-14 11:47:00,
2013-05-14 06:49:00,61.3,55.6,30.04,SW,225,0.0,2.0,81,0.00,,,0.00,WUHU215HW,2013-05-14 11:49:00,
2013-05-14 06:51:00,61.5,55.6,30.04,SW,225,0.0,0.2,81,0.00,,,0.00,WUHU215HW,2013-05-14 11:51:00,
2013-05-14 06:53:00,61.5,55.6,30.04,WSW,248,6.4,6.4,81,0.00,,,0.00,WUHU215HW,2013-05-14 11:53:00,
2013-05-14 06:55:00,61.7,55.8,30.04,WSW,248,6.4,6.4,81,0.00,,,0.00,WUHU215HW,2013-05-14 11:55:00,
2013-05-14 06:56:00,61.8,55.9,30.04,WSW,248,6.4,6.4,81,0.00,,,0.00,WUHU215HW,2013-05-14 11:56:00,
2013-05-14 07:00:00,62.2,56.3,30.04,SW,225,2.9,6.4,81,0.00,,,0.00,WUHU215HW,2013-05-14 12:00:00,
2013-05-14 07:03:00,62.4,56.4,30.04,SW,225,2.2,6.4,81,0.00,,,0.00,WUHU215HW,2013-05-14 12:03:00,
2013-05-14 07:05:00,62.4,56.4,30.04,SW,225,2.2,6.4,81,0.00,,,0.00,WUHU215HW,2013-05-14 12:05:00,
2013-05-14 07:06:00,63.1,56.4,30.04,SW,225,2.2,2.9,81,0.00,,,0.00,WUHU215HW,2013-05-14 12:06:00,
2013-05-14 07:08:00,63.1,56.4,30.04,SW,225,6.0,6.0,81,0.00,,,0.00,WUHU215HW,2013-05-14 12:08:00,
2013-05-14 07:10:00,63.5,56.4,30.04,SW,225,6.0,6.0,80,0.00,,,0.00,WUHU215HW,2013-05-14 12:10:00,
2013-05-14 07:12:00,63.8,56.4,30.04,SW,225,6.0,6.0,80,0.00,,,0.00,WUHU215HW,2013-05-14 12:12:00,
2013-05-14 07:13:00,63.8,57.5,30.04,SSW,203,6.4,6.4,80,0.00,,,0.00,WUHU215HW,2013-05-14 12:13:00,
2013-05-14 07:16:00,64.7,57.5,30.04,SW,216,5.4,6.4,79,0.00,,,0.00,WUHU215HW,2013-05-14 12:16:00,
2013-05-14 07:17:00,65.1,57.5,30.04,SW,225,4.9,6.4,78,0.00,,,0.00,WUHU215HW,2013-05-14 12:17:00,
2013-05-14 07:18:00,65.1,57.5,30.04,SW,225,4.8,6.4,78,0.00,,,0.00,WUHU215HW,2013-05-14 12:18:00,
2013-05-14 07:21:00,65.4,57.5,30.04,WSW,248,0.0,6.4,78,0.00,,,0.00,WUHU215HW,2013-05-14 12:21:00,
2013-05-14 07:22:00,65.8,58.7,30.04,SSW,203,3.8,6.4,77,0.00,,,0.00,WUHU215HW,2013-05-14 12:22:00,
2013-05-14 07:23:00,66.0,58.7,30.04,SSW,203,3.8,6.4,76,0.00,,,0.00,WUHU215HW,2013-05-14 12:23:00,
2013-05-14 07:26:00,66.3,58.7,30.04,SSW,203,0.0,5.1,76,0.00,,,0.00,WUHU215HW,2013-05-14 12:26:00,
2013-05-14 07:28:00,66.7,58.7,30.04,SSW,203,0.0,4.6,75,0.00,,,0.00,WUHU215HW,2013-05-14 12:28:00,
2013-05-14 07:29:00,66.7,58.7,30.04,SSW,203,0.0,3.8,75,0.00,,,0.00,WUHU215HW,2013-05-14 12:29:00,
2013-05-14 07:31:00,66.9,58.7,30.04,SSW,203,0.0,3.8,75,0.00,,,0.00,WUHU215HW,2013-05-14 12:31:00,
2013-05-14 07:32:00,67.2,59.0,30.04,SSW,203,4.6,4.6,75,0.00,,,0.00,WUHU215HW,2013-05-14 12:32:00,
2013-05-14 07:33:00,67.2,59.0,30.04,SSW,203,4.6,4.6,75,0.00,,,0.00,WUHU215HW,2013-05-14 12:33:00,
2013-05-14 07:34:00,67.6,59.0,30.04,SSW,201,3.2,4.6,75,0.00,,,0.00,WUHU215HW,2013-05-14 12:34:00,
2013-05-14 07:37:00,67.6,58.6,30.04,SSE,158,0.4,4.6,73,0.00,,,0.00,WUHU215HW,2013-05-14 12:37:00,
2013-05-14 07:39:00,67.6,58.6,30.04,SSE,158,0.4,4.6,73,0.00,,,0.00,WUHU215HW,2013-05-14 12:39:00,
2013-05-14 07:41:00,68.0,58.6,30.04,SSW,203,4.4,4.6,73,0.00,,,0.00,WUHU215HW,2013-05-14 12:41:00,
2013-05-14 07:43:00,68.1,58.6,30.04,WSW,248,6.0,6.0,73,0.00,,,0.00,WUHU215HW,2013-05-14 12:43:00,
2013-05-14 07:44:00,68.1,58.6,30.04,WSW,248,6.0,6.0,73,0.00,,,0.00,WUHU215HW,2013-05-14 12:44:00,
2013-05-14 07:45:00,68.5,58.6,30.04,WSW,248,6.0,6.0,72,0.00,,,0.00,WUHU215HW,2013-05-14 12:45:00,
2013-05-14 07:48:00,68.5,59.1,30.04,SE,135,0.0,6.0,72,0.00,,,0.00,WUHU215HW,2013-05-14 12:48:00,
2013-05-14 07:51:00,68.9,59.1,30.04,SW,225,6.4,6.4,71,0.00,,,0.00,WUHU215HW,2013-05-14 12:51:00,
2013-05-14 07:54:00,69.0,59.1,30.04,SW,225,6.4,6.4,71,0.00,,,0.00,WUHU215HW,2013-05-14 12:54:00,
2013-05-14 07:55:00,69.2,59.1,30.04,SW,225,6.4,6.4,71,0.00,,,0.00,WUHU215HW,2013-05-14 12:55:00,
2013-05-14 07:57:00,69.2,59.0,30.04,SW,215,3.7,6.4,70,0.00,,,0.00,WUHU215HW,2013-05-14 12:57:00,
2013-05-14 07:58:00,69.4,59.2,30.04,SSW,200,1.6,6.4,70,0.00,,,0.00,WUHU215HW,2013-05-14 12:58:00,
2013-05-14 07:59:00,69.4,59.2,30.04,SSW,194,0.9,6.4,70,0.00,,,0.00,WUHU215HW,2013-05-14 12:59:00,
2013-05-14 08:01:00,69.6,59.7,30.04,SE,135,0.2,6.4,71,0.00,,,0.00,WUHU215HW,2013-05-14 13:01:00,
2013-05-14 08:03:00,69.9,59.7,30.04,SW,225,0.0,6.4,70,0.00,,,0.00,WUHU215HW,2013-05-14 13:03:00,
2013-05-14 08:06:00,70.3,59.6,30.04,West,270,0.0,2.4,69,0.00,,,0.00,WUHU215HW,2013-05-14 13:06:00,
2013-05-14 08:07:00,70.3,59.6,30.04,West,270,0.0,2.4,69,0.00,,,0.00,WUHU215HW,2013-05-14 13:07:00,
2013-05-14 08:11:00,70.5,59.8,30.04,SSW,203,5.1,5.1,69,0.00,,,0.00,WUHU215HW,2013-05-14 13:11:00,
2013-05-14 08:13:00,70.8,59.8,30.04,SSW,203,5.1,5.1,68,0.00,,,0.00,WUHU215HW,2013-05-14 13:13:00,
2013-05-14 08:14:00,70.8,59.8,30.04,SSW,203,5.1,5.1,68,0.00,,,0.00,WUHU215HW,2013-05-14 13:14:00,
2013-05-14 08:16:00,70.8,59.7,30.04,SW,216,4.2,5.1,68,0.00,,,0.00,WUHU215HW,2013-05-14 13:16:00,
2013-05-14 08:17:00,71.2,59.7,30.04,SW,225,3.8,5.1,68,0.00,,,0.00,WUHU215HW,2013-05-14 13:17:00,
2013-05-14 08:18:00,71.2,59.7,30.04,SW,225,3.8,5.1,68,0.00,,,0.00,WUHU215HW,2013-05-14 13:18:00,
2013-05-14 08:22:00,71.4,59.8,30.04,SW,225,1.7,5.1,67,0.00,,,0.00,WUHU215HW,2013-05-14 13:22:00,
2013-05-14 08:23:00,71.4,59.8,30.04,SW,225,1.6,5.1,67,0.00,,,0.00,WUHU215HW,2013-05-14 13:23:00,
2013-05-14 08:24:00,71.4,59.8,30.04,SW,225,1.4,5.1,67,0.00,,,0.00,WUHU215HW,2013-05-14 13:24:00,
2013-05-14 08:25:00,71.4,59.8,30.04,SW,225,1.3,3.8,67,0.00,,,0.00,WUHU215HW,2013-05-14 13:25:00,
2013-05-14 08:26:00,71.6,60.0,30.04,SW,228,1.0,3.8,67,0.00,,,0.00,WUHU215HW,2013-05-14 13:26:00,
2013-05-14 08:29:00,71.7,59.7,30.04,South,180,7.6,7.6,66,0.00,,,0.00,WUHU215HW,2013-05-14 13:29:00,
2013-05-14 08:30:00,71.7,59.7,30.04,South,180,7.6,7.6,66,0.00,,,0.00,WUHU215HW,2013-05-14 13:30:00,
2013-05-14 08:31:00,71.7,59.7,30.04,South,180,7.6,7.6,66,0.00,,,0.00,WUHU215HW,2013-05-14 13:31:00,
2013-05-14 08:35:00,71.9,59.7,30.04,South,180,7.6,7.6,66,0.00,,,0.00,WUHU215HW,2013-05-14 13:35:00,
2013-05-14 08:36:00,71.9,59.7,30.04,South,180,7.6,7.6,66,0.00,,,0.00,WUHU215HW,2013-05-14 13:36:00,
2013-05-14 08:37:00,72.1,59.7,30.04,South,178,5.6,7.6,66,0.00,,,0.00,WUHU215HW,2013-05-14 13:37:00,
2013-05-14 08:41:00,72.3,60.1,30.04,South,180,4.2,7.6,65,0.00,,,0.00,WUHU215HW,2013-05-14 13:41:00,
2013-05-14 08:42:00,72.3,60.1,30.04,South,180,4.2,7.6,65,0.00,,,0.00,WUHU215HW,2013-05-14 13:42:00,
2013-05-14 08:43:00,72.3,60.1,30.04,South,180,4.2,7.6,65,0.00,,,0.00,WUHU215HW,2013-05-14 13:43:00,
2013-05-14 08:46:00,72.5,60.0,30.04,SSW,203,7.8,7.8,65,0.00,,,0.00,WUHU215HW,2013-05-14 13:46:00,
2013-05-14 08:47:00,72.6,59.7,30.04,SSW,207,6.3,7.8,64,0.00,,,0.00,WUHU215HW,2013-05-14 13:47:00,
2013-05-14 08:48:00,72.6,59.7,30.04,SSW,213,4.8,7.8,64,0.00,,,0.00,WUHU215HW,2013-05-14 13:48:00,
2013-05-14 08:49:00,72.6,59.7,30.04,SSW,212,3.1,7.8,64,0.00,,,0.00,WUHU215HW,2013-05-14 13:49:00,
2013-05-14 08:53:00,72.8,59.9,30.04,WSW,248,1.3,7.8,64,0.00,,,0.00,WUHU215HW,2013-05-14 13:53:00,
2013-05-14 08:55:00,73.0,60.0,30.04,WSW,248,4.6,7.8,64,0.00,,,0.00,WUHU215HW,2013-05-14 13:55:00,
2013-05-14 08:56:00,73.0,60.0,30.04,WSW,248,4.6,7.8,64,0.00,,,0.00,WUHU215HW,2013-05-14 13:56:00,
2013-05-14 08:57:00,73.0,60.0,30.04,WSW,248,4.6,4.6,64,0.00,,,0.00,WUHU215HW,2013-05-14 13:57:00,
2013-05-14 09:01:00,73.5,60.8,30.04,SW,225,2.4,4.6,64,0.00,,,0.00,WUHU215HW,2013-05-14 14:01:00,
2013-05-14 09:02:00,73.6,60.9,30.04,SW,225,0.0,4.6,64,0.00,,,0.00,WUHU215HW,2013-05-14 14:02:00,
2013-05-14 09:03:00,73.6,60.8,30.04,SW,225,0.0,4.6,64,0.00,,,0.00,WUHU215HW,2013-05-14 14:03:00,
2013-05-14 09:06:00,73.6,60.4,30.04,SW,225,0.0,4.6,63,0.00,,,0.00,WUHU215HW,2013-05-14 14:06:00,
2013-05-14 09:07:00,73.6,60.4,30.04,SSW,203,7.6,7.6,63,0.00,,,0.00,WUHU215HW,2013-05-14 14:07:00,
2013-05-14 09:09:00,73.7,60.0,30.04,SSW,203,7.6,7.6,62,0.00,,,0.00,WUHU215HW,2013-05-14 14:09:00,
2013-05-14 09:11:00,73.8,60.1,30.04,SE,135,2.6,7.6,62,0.00,,,0.00,WUHU215HW,2013-05-14 14:11:00,
2013-05-14 09:12:00,73.7,60.1,30.04,SE,135,2.6,7.6,62,0.00,,,0.00,WUHU215HW,2013-05-14 14:12:00,
2013-05-14 09:16:00,73.6,59.5,30.04,WSW,248,6.4,7.6,61,0.00,,,0.00,WUHU215HW,2013-05-14 14:16:00,
2013-05-14 09:17:00,73.9,59.9,30.04,SSW,203,1.7,7.6,61,0.00,,,0.00,WUHU215HW,2013-05-14 14:17:00,
2013-05-14 09:18:00,73.9,59.8,30.04,SSW,203,1.7,6.4,61,0.00,,,0.00,WUHU215HW,2013-05-14 14:18:00,
2013-05-14 09:20:00,73.8,59.7,30.04,WSW,248,6.2,6.4,61,0.00,,,0.00,WUHU215HW,2013-05-14 14:20:00,
2013-05-14 09:23:00,73.6,59.6,30.04,SW,233,4.8,6.4,61,0.00,,,0.00,WUHU215HW,2013-05-14 14:23:00,
2013-05-14 09:25:00,73.7,59.2,30.04,WSW,248,4.2,6.2,60,0.00,,,0.00,WUHU215HW,2013-05-14 14:25:00,
2013-05-14 09:26:00,74.0,59.4,30.04,WSW,248,4.2,6.2,60,0.00,,,0.00,WUHU215HW,2013-05-14 14:26:00,
2013-05-14 09:28:00,73.9,59.3,30.04,WSW,248,3.6,6.2,60,0.00,,,0.00,WUHU215HW,2013-05-14 14:28:00,
2013-05-14 09:29:00,73.8,59.3,30.04,WSW,248,3.0,6.2,60,0.00,,,0.00,WUHU215HW,2013-05-14 14:29:00,
2013-05-14 09:30:00,74.2,59.1,30.04,WSW,248,2.4,6.2,59,0.00,,,0.00,WUHU215HW,2013-05-14 14:30:00,
2013-05-14 09:32:00,74.3,59.2,30.04,WSW,248,2.4,6.2,59,0.00,,,0.00,WUHU215HW,2013-05-14 14:32:00,
2013-05-14 09:33:00,74.2,59.2,30.04,WSW,248,2.4,4.2,59,0.00,,,0.00,WUHU215HW,2013-05-14 14:33:00,
2013-05-14 09:37:00,74.7,59.7,30.04,WSW,248,4.2,4.2,59,0.00,,,0.00,WUHU215HW,2013-05-14 14:37:00,
2013-05-14 09:38:00,74.9,59.3,30.04,WSW,248,4.2,4.2,58,0.00,,,0.00,WUHU215HW,2013-05-14 14:38:00,
2013-05-14 09:39:00,74.8,59.3,30.04,WSW,248,4.2,4.2,58,0.00,,,0.00,WUHU215HW,2013-05-14 14:39:00,
2013-05-14 09:43:00,75.3,59.2,30.04,WSW,248,4.2,4.2,57,0.00,,,0.00,WUHU215HW,2013-05-14 14:43:00,
2013-05-14 09:45:00,75.4,59.3,30.04,SW,225,0.0,4.2,57,0.00,,,0.00,WUHU215HW,2013-05-14 14:45:00,
2013-05-14 09:47:00,75.7,59.0,30.04,SW,225,0.0,4.2,56,0.00,,,0.00,WUHU215HW,2013-05-14 14:47:00,
2013-05-14 09:48:00,75.6,59.0,30.04,SW,225,0.0,4.2,56,0.00,,,0.00,WUHU215HW,2013-05-14 14:48:00,
2013-05-14 09:49:00,76.0,59.3,30.04,SSW,203,0.8,4.2,56,0.00,,,0.00,WUHU215HW,2013-05-14 14:49:00,
2013-05-14 09:51:00,76.1,58.9,30.04,SSW,203,0.8,4.2,55,0.00,,,0.00,WUHU215HW,2013-05-14 14:51:00,
2013-05-14 09:52:00,76.0,58.8,30.04,SSW,203,0.8,4.2,55,0.00,,,0.00,WUHU215HW,2013-05-14 14:52:00,
2013-05-14 09:54:00,76.2,58.5,30.04,WSW,248,0.0,0.8,54,0.00,,,0.00,WUHU215HW,2013-05-14 14:54:00,
2013-05-14 09:56:00,76.3,58.6,30.04,WSW,248,0.0,0.8,54,0.00,,,0.00,WUHU215HW,2013-05-14 14:56:00,
2013-05-14 09:57:00,76.3,58.6,30.04,WSW,248,0.0,0.8,54,0.00,,,0.00,WUHU215HW,2013-05-14 14:57:00,
2013-05-14 10:01:00,76.5,58.2,30.04,SSW,203,4.0,4.0,53,0.00,,,0.00,WUHU215HW,2013-05-14 15:01:00,
2013-05-14 10:03:00,76.6,58.3,30.04,SSW,203,6.2,6.2,53,0.00,,,0.00,WUHU215HW,2013-05-14 15:03:00,
2013-05-14 10:06:00,77.0,58.1,30.04,SSE,158,2.4,6.2,52,0.00,,,0.00,WUHU215HW,2013-05-14 15:06:00,
2013-05-14 10:07:00,76.9,58.1,30.04,SSE,158,2.4,6.2,52,0.00,,,0.00,WUHU215HW,2013-05-14 15:07:00,
2013-05-14 10:10:00,77.3,58.4,30.04,SW,220,4.0,9.3,52,0.00,,,0.00,WUHU215HW,2013-05-14 15:10:00,
2013-05-14 10:13:00,77.3,57.9,30.04,South,180,3.5,9.3,51,0.00,,,0.00,WUHU215HW,2013-05-14 15:13:00,
2013-05-14 10:14:00,77.3,57.9,30.04,South,180,3.5,9.3,51,0.00,,,0.00,WUHU215HW,2013-05-14 15:14:00,
2013-05-14 10:17:00,77.8,58.3,30.04,SW,225,5.6,9.3,51,0.00,,,0.00,WUHU215HW,2013-05-14 15:17:00,
2013-05-14 10:18:00,77.7,58.3,30.04,SW,225,4.2,9.3,51,0.00,,,0.00,WUHU215HW,2013-05-14 15:18:00,
2013-05-14 10:19:00,77.8,57.8,30.04,SSW,203,3.5,9.3,50,0.00,,,0.00,WUHU215HW,2013-05-14 15:19:00,
2013-05-14 10:20:00,77.7,57.7,30.04,SSW,203,3.5,6.9,50,0.00,,,0.00,WUHU215HW,2013-05-14 15:20:00,
2013-05-14 10:23:00,78.2,58.1,30.04,West,270,7.6,7.6,50,0.00,,,0.00,WUHU215HW,2013-05-14 15:23:00,
2013-05-14 10:24:00,78.2,58.1,30.04,West,270,7.6,7.6,50,0.00,,,0.00,WUHU215HW,2013-05-14 15:24:00,
2013-05-14 10:25:00,78.1,58.1,30.04,West,270,7.6,7.6,50,0.00,,,0.00,WUHU215HW,2013-05-14 15:25:00,
2013-05-14 10:28:00,78.7,59.2,30.04,West,265,5.6,7.6,51,0.00,,,0.00,WUHU215HW,2013-05-14 15:28:00,
2013-05-14 10:30:00,79.0,58.9,30.04,SW,225,2.9,7.6,50,0.00,,,0.00,WUHU215HW,2013-05-14 15:30:00,
2013-05-14 10:31:00,79.0,58.9,30.04,SW,225,2.9,7.6,50,0.00,,,0.00,WUHU215HW,2013-05-14 15:31:00,
2013-05-14 10:32:00,79.2,59.1,30.04,South,180,5.1,7.6,50,0.00,,,0.00,WUHU215HW,2013-05-14 15:32:00,
2013-05-14 10:35:00,79.3,58.0,30.04,South,183,1.9,7.6,48,0.00,,,0.00,WUHU215HW,2013-05-14 15:35:00,
2013-05-14 10:36:00,79.5,58.1,30.04,WSW,248,1.3,7.6,48,0.00,,,0.00,WUHU215HW,2013-05-14 15:36:00,
2013-05-14 10:37:00,79.4,58.1,30.04,WSW,248,1.3,7.6,48,0.00,,,0.00,WUHU215HW,2013-05-14 15:37:00,
2013-05-14 10:38:00,79.4,58.1,30.04,WSW,242,1.0,5.1,48,0.00,,,0.00,WUHU215HW,2013-05-14 15:38:00,
2013-05-14 10:40:00,80.0,58.0,30.04,South,180,1.3,5.1,47,0.00,,,0.00,WUHU215HW,2013-05-14 15:40:00,
2013-05-14 10:44:00,80.1,58.1,30.04,SSE,158,16.1,16.1,47,0.00,,,0.00,WUHU215HW,2013-05-14 15:44:00,
2013-05-14 10:45:00,80.2,58.2,30.04,SSE,162,13.1,16.1,47,0.00,,,0.00,WUHU215HW,2013-05-14 15:45:00,
2013-05-14 10:46:00,80.2,58.2,30.04,SSE,168,10.2,16.1,47,0.00,,,0.00,WUHU215HW,2013-05-14 15:46:00,
2013-05-14 10:48:00,80.4,57.8,30.04,South,191,5.0,16.1,46,0.00,,,0.00,WUHU215HW,2013-05-14 15:48:00,
2013-05-14 10:51:00,80.7,58.1,30.04,SSW,203,2.2,16.1,46,0.00,,,0.00,WUHU215HW,2013-05-14 15:51:00,
2013-05-14 10:52:00,80.7,58.0,30.04,SSW,203,2.2,16.1,46,0.00,,,0.00,WUHU215HW,2013-05-14 15:52:00,
2013-05-14 10:54:00,80.6,57.3,30.04,West,270,0.0,16.1,45,0.00,,,0.00,WUHU215HW,2013-05-14 15:54:00,
2013-05-14 10:55:00,80.6,57.3,30.04,West,270,0.0,7.6,45,0.00,,,0.00,WUHU215HW,2013-05-14 15:55:00,
2013-05-14 10:59:00,81.3,58.0,30.04,West,270,7.8,7.8,45,0.00,,,0.00,WUHU215HW,2013-05-14 15:59:00,
2013-05-14 11:00:00,81.3,58.0,30.04,West,270,7.8,7.8,45,0.00,,,0.00,WUHU215HW,2013-05-14 16:00:00,
2013-05-14 11:03:00,81.5,57.5,30.04,West,270,7.8,7.8,44,0.00,,,0.00,WUHU215HW,2013-05-14 16:03:00,
2013-05-14 11:05:00,81.5,57.5,30.04,SW,236,4.4,7.8,44,0.00,,,0.00,WUHU215HW,2013-05-14 16:05:00,
2013-05-14 11:07:00,81.8,57.8,30.04,SSW,203,2.8,7.8,44,0.00,,,0.00,WUHU215HW,2013-05-14 16:07:00,
2013-05-14 11:08:00,82.0,57.9,30.04,SSW,203,2.2,7.8,44,0.00,,,0.00,WUHU215HW,2013-05-14 16:08:00,
2013-05-14 11:10:00,82.2,57.5,30.04,WSW,248,0.8,7.8,43,0.00,,,0.00,WUHU215HW,2013-05-14 16:10:00,
2013-05-14 11:11:00,82.2,57.4,30.04,WSW,248,0.8,7.8,43,0.00,,,0.00,WUHU215HW,2013-05-14 16:11:00,
2013-05-14 11:13:00,82.1,57.4,30.04,WSW,248,0.8,7.8,43,0.00,,,0.00,WUHU215HW,2013-05-14 16:13:00,
2013-05-14 11:14:00,82.5,57.1,30.04,WSW,248,4.4,4.4,42,0.00,,,0.00,WUHU215HW,2013-05-14 16:14:00,
2013-05-14 11:15:00,82.5,57.0,30.04,WSW,248,4.4,4.4,42,0.00,,,0.00,WUHU215HW,2013-05-14 16:15:00,
2013-05-14 11:16:00,82.6,57.2,30.04,WSW,248,4.4,4.4,42,0.00,,,0.00,WUHU215HW,2013-05-14 16:16:00,
2013-05-14 11:19:00,82.7,58.0,30.04,SSW,203,21.2,21.2,43,0.00,,,0.00,WUHU215HW,2013-05-14 16:19:00,
2013-05-14 11:20:00,82.7,57.9,30.04,SSW,201,14.4,21.2,43,0.00,,,0.00,WUHU215HW,2013-05-14 16:20:00,
2013-05-14 11:21:00,82.8,57.3,30.04,SSW,198,7.7,21.2,42,0.00,,,0.00,WUHU215HW,2013-05-14 16:21:00,
2013-05-14 11:24:00,83.1,57.6,30.04,SSW,203,2.2,21.2,42,0.00,,,0.00,WUHU215HW,2013-05-14 16:24:00,
2013-05-14 11:25:00,83.3,57.8,30.04,West,270,6.7,21.2,42,0.00,,,0.00,WUHU215HW,2013-05-14 16:25:00,
2013-05-14 11:26:00,83.3,57.8,30.04,West,270,6.7,21.2,42,0.00,,,0.00,WUHU215HW,2013-05-14 16:26:00,
2013-05-14 11:28:00,83.7,57.5,30.04,SSW,203,10.5,21.2,41,0.00,,,0.00,WUHU215HW,2013-05-14 16:28:00,
2013-05-14 11:30:00,83.9,57.6,30.04,SSW,203,10.5,10.5,41,0.00,,,0.00,WUHU215HW,2013-05-14 16:30:00,
2013-05-14 11:31:00,83.8,57.6,30.04,SSW,203,10.5,10.5,41,0.00,,,0.00,WUHU215HW,2013-05-14 16:31:00,
2013-05-14 11:32:00,83.8,57.6,30.04,SSW,203,10.5,10.5,41,0.00,,,0.00,WUHU215HW,2013-05-14 16:32:00,
2013-05-14 11:36:00,84.2,57.2,30.04,SSE,158,2.6,10.5,40,0.00,,,0.00,WUHU215HW,2013-05-14 16:36:00,
2013-05-14 11:38:00,84.6,57.6,30.04,South,180,3.3,10.5,40,0.00,,,0.00,WUHU215HW,2013-05-14 16:38:00,
2013-05-14 11:40:00,84.8,57.0,30.04,WSW,248,2.6,10.5,39,0.00,,,0.00,WUHU215HW,2013-05-14 16:40:00,
2013-05-14 11:41:00,85.0,57.2,30.04,SW,236,1.9,10.5,39,0.00,,,0.00,WUHU215HW,2013-05-14 16:41:00,
2013-05-14 11:42:00,85.0,57.2,30.04,SW,214,1.4,10.5,39,0.00,,,0.00,WUHU215HW,2013-05-14 16:42:00,
2013-05-14 11:44:00,85.4,56.8,30.04,South,180,1.3,3.3,38,0.00,,,0.00,WUHU215HW,2013-05-14 16:44:00,
2013-05-14 11:47:00,85.8,57.2,30.04,South,180,1.3,3.3,38,0.00,,,0.00,WUHU215HW,2013-05-14 16:47:00,
2013-05-14 11:48:00,85.8,57.2,30.04,South,180,1.3,3.3,38,0.00,,,0.00,WUHU215HW,2013-05-14 16:48:00,
2013-05-14 11:51:00,86.4,58.4,30.04,SW,225,0.0,1.3,39,0.00,,,0.00,WUHU215HW,2013-05-14 16:51:00,
2013-05-14 11:52:00,86.5,57.8,30.04,South,180,3.3,3.3,38,0.00,,,0.00,WUHU215HW,2013-05-14 16:52:00,
2013-05-14 11:54:00,86.8,58.1,30.04,SE,135,6.0,6.0,38,0.00,,,0.00,WUHU215HW,2013-05-14 16:54:00,
2013-05-14 11:57:00,87.2,58.4,30.04,SE,135,6.0,6.0,38,0.00,,,0.00,WUHU215HW,2013-05-14 16:57:00,
2013-05-14 11:58:00,87.1,58.4,30.04,ENE,68,0.0,6.0,38,0.00,,,0.00,WUHU215HW,2013-05-14 16:58:00,
2013-05-14 11:59:00,87.1,58.4,30.04,ENE,68,0.0,6.0,38,0.00,,,0.00,WUHU215HW,2013-05-14 16:59:00,
2013-05-14 12:01:00,87.8,58.2,30.04,SW,225,2.9,6.0,37,0.00,,,0.00,WUHU215HW,2013-05-14 17:01:00,
2013-05-14 12:04:00,87.8,58.2,30.04,SW,225,2.9,6.0,37,0.00,,,0.00,WUHU215HW,2013-05-14 17:04:00,
2013-05-14 12:05:00,87.8,58.2,30.04,SW,225,2.9,6.0,37,0.00,,,0.00,WUHU215HW,2013-05-14 17:05:00,
2013-05-14 12:06:00,87.8,58.2,30.04,SW,225,2.9,2.9,37,0.00,,,0.00,WUHU215HW,2013-05-14 17:06:00,
2013-05-14 12:07:00,87.7,58.2,30.04,SW,225,2.9,2.9,37,0.00,,,0.00,WUHU215HW,2013-05-14 17:07:00,
2013-05-14 12:10:00,87.7,58.1,30.04,SW,225,2.9,2.9,37,0.00,,,0.00,WUHU215HW,2013-05-14 17:10:00,
2013-05-14 12:11:00,87.7,58.1,30.04,SW,225,2.9,2.9,37,0.00,,,0.00,WUHU215HW,2013-05-14 17:11:00,
2013-05-14 12:12:00,87.7,58.1,30.04,SW,225,2.9,2.9,37,0.00,,,0.00,WUHU215HW,2013-05-14 17:12:00,
2013-05-14 12:16:00,90.0,57.7,30.04,SW,225,3.5,3.5,34,0.00,,,0.00,WUHU215HW,2013-05-14 17:16:00,
2013-05-14 12:17:00,90.0,57.7,30.04,SW,227,2.4,3.5,34,0.00,,,0.00,WUHU215HW,2013-05-14 17:17:00,
2013-05-14 12:18:00,90.2,57.9,30.04,SW,233,1.4,3.5,34,0.00,,,0.00,WUHU215HW,2013-05-14 17:18:00,
2013-05-14 12:20:00,90.1,57.9,30.04,West,270,0.4,3.5,34,0.00,,,0.00,WUHU215HW,2013-05-14 17:20:00,
2013-05-14 12:22:00,90.8,58.5,30.04,WSW,248,10.2,10.2,34,0.00,,,0.00,WUHU215HW,2013-05-14 17:22:00,
2013-05-14 12:23:00,90.8,58.5,30.04,WSW,248,10.2,10.2,34,0.00,,,0.00,WUHU215HW,2013-05-14 17:23:00,
2013-05-14 12:24:00,90.8,57.7,30.04,WSW,248,10.2,10.2,33,0.00,,,0.00,WUHU215HW,2013-05-14 17:24:00,
2013-05-14 12:25:00,90.8,57.6,30.04,WSW,248,10.2,10.2,33,0.00,,,0.00,WUHU215HW,2013-05-14 17:25:00,
2013-05-14 12:26:00,90.8,57.6,30.04,WSW,248,10.2,10.2,33,0.00,,,0.00,WUHU215HW,2013-05-14 17:26:00,
2013-05-14 12:27:00,90.8,57.6,30.04,WSW,248,10.2,10.2,33,0.00,,,0.00,WUHU215HW,2013-05-14 17:27:00,
2013-05-14 12:28:00,91.9,56.9,30.04,WSW,248,10.2,10.2,31,0.00,,,0.00,WUHU215HW,2013-05-14 17:28:00,
2013-05-14 12:30:00,91.9,55.9,30.04,SW,225,0.0,10.2,30,0.00,,,0.00,WUHU215HW,2013-05-14 17:30:00,
2013-05-14 12:31:00,91.9,55.9,30.04,SW,225,0.0,10.2,30,0.00,,,0.00,WUHU215HW,2013-05-14 17:31:00,
2013-05-14 12:32:00,92.6,56.5,30.04,SW,225,0.0,10.2,30,0.00,,,0.00,WUHU215HW,2013-05-14 17:32:00,
2013-05-14 12:33:00,92.6,56.5,30.04,SW,225,0.0,10.2,30,0.00,,,0.00,WUHU215HW,2013-05-14 17:33:00,
2013-05-14 12:37:00,93.2,58.0,30.04,SW,225,1.5,10.2,31,0.00,,,0.00,WUHU215HW,2013-05-14 17:37:00,
2013-05-14 12:38:00,93.2,58.0,30.04,SW,225,1.5,1.5,31,0.00,,,0.00,WUHU215HW,2013-05-14 17:38:00,
2013-05-14 12:40:00,93.9,57.7,30.04,WSW,248,2.2,2.2,30,0.00,,,0.00,WUHU215HW,2013-05-14 17:40:00,
2013-05-14 12:41:00,93.9,57.7,30.04,WSW,248,2.2,2.2,30,0.00,,,0.00,WUHU215HW,2013-05-14 17:41:00,
2013-05-14 12:42:00,93.9,57.7,30.04,WSW,248,2.2,2.2,30,0.00,,,0.00,WUHU215HW,2013-05-14 17:42:00,
2013-05-14 12:45:00,94.3,57.1,30.04,SSW,203,5.8,5.8,29,0.00,,,0.00,WUHU215HW,2013-05-14 17:45:00,
2013-05-14 12:46:00,94.8,57.5,30.04,SSW,203,5.8,5.8,29,0.00,,,0.00,WUHU215HW,2013-05-14 17:46:00,
2013-05-14 12:48:00,95.0,57.7,30.04,SSW,203,5.8,5.8,29,0.00,,,0.00,WUHU215HW,2013-05-14 17:48:00,
2013-05-14 12:49:00,95.3,58.0,30.04,SSW,205,4.3,5.8,29,0.00,,,0.00,WUHU215HW,2013-05-14 17:49:00,
2013-05-14 12:52:00,95.6,58.2,30.04,West,270,4.9,5.8,29,0.00,,,0.00,WUHU215HW,2013-05-14 17:52:00,
2013-05-14 12:53:00,95.6,58.2,30.04,West,270,4.9,5.8,29,0.00,,,0.00,WUHU215HW,2013-05-14 17:53:00,
2013-05-14 12:55:00,96.0,57.6,30.04,SW,225,4.2,5.8,28,0.00,,,0.00,WUHU215HW,2013-05-14 17:55:00,
2013-05-14 12:56:00,96.3,57.8,30.04,SW,228,3.2,5.8,28,0.00,,,0.00,WUHU215HW,2013-05-14 17:56:00,
2013-05-14 12:58:00,96.3,55.8,30.04,WSW,248,4.0,5.8,26,0.00,,,0.00,WUHU215HW,2013-05-14 17:58:00,
2013-05-14 13:01:00,96.7,56.2,30.04,WSW,248,4.0,4.9,26,0.00,,,0.00,WUHU215HW,2013-05-14 18:01:00,
2013-05-14 13:03:00,97.0,55.3,30.04,NE,45,4.6,4.9,25,0.00,,,0.00,WUHU215HW,2013-05-14 18:03:00,
2013-05-14 13:05:00,97.2,55.5,30.04,NE,45,4.6,4.6,25,0.00,,,0.00,WUHU215HW,2013-05-14 18:05:00,
2013-05-14 13:06:00,97.2,55.5,30.04,WSW,248,0.0,4.6,25,0.00,,,0.00,WUHU215HW,2013-05-14 18:06:00,
2013-05-14 13:09:00,97.5,54.6,30.04,SW,225,6.4,6.4,24,0.00,,,0.00,WUHU215HW,2013-05-14 18:09:00,
2013-05-14 13:10:00,97.5,54.7,30.04,SW,225,6.4,6.4,24,0.00,,,0.00,WUHU215HW,2013-05-14 18:10:00,
2013-05-14 13:12:00,97.8,54.8,30.04,SW,217,3.2,6.4,24,0.00,,,0.00,WUHU215HW,2013-05-14 18:12:00,
2013-05-14 13:14:00,97.8,54.9,30.04,SW,225,2.6,6.4,24,0.00,,,0.00,WUHU215HW,2013-05-14 18:14:00,
2013-05-14 13:16:00,97.8,54.9,30.04,SW,225,2.6,6.4,24,0.00,,,0.00,WUHU215HW,2013-05-14 18:16:00,
2013-05-14 13:17:00,97.8,54.9,30.04,SSE,158,4.2,6.4,24,0.00,,,0.00,WUHU215HW,2013-05-14 18:17:00,
2013-05-14 13:20:00,98.3,55.3,30.04,SSE,158,4.2,6.4,24,0.00,,,0.00,WUHU215HW,2013-05-14 18:20:00,
2013-05-14 13:22:00,98.3,55.3,30.04,SSE,158,4.2,4.2,24,0.00,,,0.00,WUHU215HW,2013-05-14 18:22:00,
2013-05-14 13:24:00,98.4,55.3,30.04,SSE,158,4.2,4.2,24,0.00,,,0.00,WUHU215HW,2013-05-14 18:24:00,
2013-05-14 13:25:00,98.4,55.4,30.04,SSE,158,4.2,4.2,24,0.00,,,0.00,WUHU215HW,2013-05-14 18:25:00,
2013-05-14 13:27:00,98.7,55.6,30.04,South,180,0.0,4.2,24,0.00,,,0.00,WUHU215HW,2013-05-14 18:27:00,
2013-05-14 13:29:00,99.0,55.8,30.04,WSW,248,0.8,4.2,24,0.00,,,0.00,WUHU215HW,2013-05-14 18:29:00,
2013-05-14 13:32:00,99.0,55.9,30.04,WSW,248,0.8,4.2,24,0.00,,,0.00,WUHU215HW,2013-05-14 18:32:00,
2013-05-14 13:33:00,99.0,55.9,30.04,WSW,248,0.8,4.2,24,0.00,,,0.00,WUHU215HW,2013-05-14 18:33:00,
2013-05-14 13:34:00,99.1,55.9,30.04,WSW,248,0.8,0.8,24,0.00,,,0.00,WUHU215HW,2013-05-14 18:34:00,
2013-05-14 13:35:00,99.1,56.0,30.04,WSW,248,0.8,0.8,24,0.00,,,0.00,WUHU215HW,2013-05-14 18:35:00,
2013-05-14 13:37:00,99.1,56.0,30.04,WSW,248,0.8,0.8,24,0.00,,,0.00,WUHU215HW,2013-05-14 18:37:00,
2013-05-14 13:38:00,99.1,56.0,30.04,WSW,248,0.8,0.8,24,0.00,,,0.00,WUHU215HW,2013-05-14 18:38:00,
2013-05-14 13:40:00,99.2,56.1,30.04,WNW,293,2.4,2.4,24,0.00,,,0.00,WUHU215HW,2013-05-14 18:40:00,
2013-05-14 13:41:00,99.2,54.9,30.04,WNW,299,1.3,2.4,23,0.00,,,0.00,WUHU215HW,2013-05-14 18:41:00,
2013-05-14 13:42:00,99.2,54.9,30.04,East,90,1.1,2.4,23,0.00,,,0.00,WUHU215HW,2013-05-14 18:42:00,
2013-05-14 13:43:00,99.3,55.0,30.04,East,90,1.1,2.4,23,0.00,,,0.00,WUHU215HW,2013-05-14 18:43:00,
2013-05-14 13:48:00,99.0,54.7,30.04,East,90,1.1,2.4,23,0.00,,,0.00,WUHU215HW,2013-05-14 18:48:00,
2013-05-14 13:49:00,99.0,54.7,30.04,East,90,1.1,2.4,23,0.00,,,0.00,WUHU215HW,2013-05-14 18:49:00,
2013-05-14 13:52:00,99.0,54.7,30.04,East,90,1.1,1.1,23,0.00,,,0.00,WUHU215HW,2013-05-14 18:52:00,
2013-05-14 13:54:00,99.1,54.8,30.04,East,90,1.1,1.1,23,0.00,,,0.00,WUHU215HW,2013-05-14 18:54:00,
2013-05-14 13:55:00,99.1,54.8,30.04,East,90,1.1,1.1,23,0.00,,,0.00,WUHU215HW,2013-05-14 18:55:00,
2013-05-14 13:57:00,99.1,54.8,30.04,East,90,1.1,1.1,23,0.00,,,0.00,WUHU215HW,2013-05-14 18:57:00,
2013-05-14 13:58:00,99.2,54.9,30.04,East,90,1.1,1.1,23,0.00,,,0.00,WUHU215HW,2013-05-14 18:58:00,
2013-05-14 14:00:00,99.2,54.9,30.04,East,90,1.1,1.1,23,0.00,,,0.00,WUHU215HW,2013-05-14 19:00:00,
2013-05-14 14:02:00,99.3,55.0,30.04,East,90,1.1,1.1,23,0.00,,,0.00,WUHU215HW,2013-05-14 19:02:00,
2013-05-14 14:03:00,99.3,55.0,30.04,East,90,1.1,1.1,23,0.00,,,0.00,WUHU215HW,2013-05-14 19:03:00,
2013-05-14 14:04:00,99.4,55.0,30.04,East,90,1.1,1.1,23,0.00,,,0.00,WUHU215HW,2013-05-14 19:04:00,
2013-05-14 14:05:00,99.4,55.1,30.04,East,90,1.1,1.1,23,0.00,,,0.00,WUHU215HW,2013-05-14 19:05:00,
2013-05-14 14:09:00,99.5,55.2,30.04,East,90,1.1,1.1,23,0.00,,,0.00,WUHU215HW,2013-05-14 19:09:00,
2013-05-14 14:10:00,99.6,55.2,30.04,East,90,1.1,1.1,23,0.00,,,0.00,WUHU215HW,2013-05-14 19:10:00,
2013-05-14 14:11:00,99.6,55.2,30.04,East,90,1.1,1.1,23,0.00,,,0.00,WUHU215HW,2013-05-14 19:11:00,
2013-05-14 14:12:00,99.6,55.2,30.04,East,90,1.1,1.1,23,0.00,,,0.00,WUHU215HW,2013-05-14 19:12:00,
2013-05-14 14:16:00,99.8,55.4,30.04,East,90,1.1,1.1,23,0.00,,,0.00,WUHU215HW,2013-05-14 19:16:00,
2013-05-14 14:17:00,99.8,55.4,30.04,East,90,1.1,1.1,23,0.00,,,0.00,WUHU215HW,2013-05-14 19:17:00,
2013-05-14 14:18:00,99.8,55.4,30.04,East,90,1.1,1.1,23,0.00,,,0.00,WUHU215HW,2013-05-14 19:18:00,
2013-05-14 14:19:00,99.9,55.4,30.04,East,90,1.1,1.1,23,0.00,,,0.00,WUHU215HW,2013-05-14 19:19:00,
2013-05-14 14:21:00,99.9,55.5,30.04,East,90,1.1,1.1,23,0.00,,,0.00,WUHU215HW,2013-05-14 19:21:00,
2013-05-14 14:22:00,100.0,55.5,30.04,East,90,1.1,1.1,23,0.00,,,0.00,WUHU215HW,2013-05-14 19:22:00,
2013-05-14 14:23:00,100.0,55.6,30.04,East,90,1.1,1.1,23,0.00,,,0.00,WUHU215HW,2013-05-14 19:23:00,
2013-05-14 14:26:00,98.1,55.1,30.04,East,90,1.1,1.1,24,0.00,,,0.00,WUHU215HW,2013-05-14 19:26:00,
2013-05-14 14:27:00,98.2,55.2,30.04,East,90,1.1,1.1,24,0.00,,,0.00,WUHU215HW,2013-05-14 19:27:00,
2013-05-14 14:29:00,98.2,55.2,30.04,East,90,1.1,1.1,24,0.00,,,0.00,WUHU215HW,2013-05-14 19:29:00,
2013-05-14 14:30:00,98.3,55.3,30.04,East,90,1.1,1.1,24,0.00,,,0.00,WUHU215HW,2013-05-14 19:30:00,
2013-05-14 14:31:00,98.3,55.3,30.04,East,90,1.1,1.1,24,0.00,,,0.00,WUHU215HW,2013-05-14 19:31:00,
2013-05-14 14:33:00,98.4,55.4,30.04,East,90,1.1,1.1,24,0.00,,,0.00,WUHU215HW,2013-05-14 19:33:00,
2013-05-14 14:34:00,98.4,56.5,30.04,SSE,158,5.8,5.8,25,0.00,,,0.00,WUHU215HW,2013-05-14 19:34:00,
2013-05-14 14:37:00,98.5,55.5,30.04,SSE,158,6.9,6.9,24,0.00,,,0.00,WUHU215HW,2013-05-14 19:37:00,
2013-05-14 14:39:00,98.6,54.4,30.04,South,171,4.3,6.9,23,0.00,,,0.00,WUHU215HW,2013-05-14 19:39:00,
2013-05-14 14:40:00,98.7,54.5,30.04,West,270,3.3,6.9,23,0.00,,,0.00,WUHU215HW,2013-05-14 19:40:00,
2013-05-14 14:43:00,98.8,54.6,30.04,West,270,3.3,6.9,23,0.00,,,0.00,WUHU215HW,2013-05-14 19:43:00,
2013-05-14 14:44:00,98.8,54.6,30.04,West,270,3.3,6.9,23,0.00,,,0.00,WUHU215HW,2013-05-14 19:44:00,
2013-05-14 14:46:00,98.9,54.7,30.04,WSW,248,5.5,6.9,23,0.00,,,0.00,WUHU215HW,2013-05-14 19:46:00,
2013-05-14 14:48:00,99.0,55.9,30.04,West,262,2.5,6.9,24,0.00,,,0.00,WUHU215HW,2013-05-14 19:48:00,
2013-05-14 14:49:00,99.2,56.1,30.04,South,180,9.8,9.8,24,0.00,,,0.00,WUHU215HW,2013-05-14 19:49:00,
2013-05-14 14:50:00,99.3,56.1,30.04,South,180,9.8,9.8,24,0.00,,,0.00,WUHU215HW,2013-05-14 19:50:00,
2013-05-14 14:53:00,99.4,55.1,30.04,South,174,3.7,9.8,23,0.00,,,0.00,WUHU215HW,2013-05-14 19:53:00,
2013-05-14 14:54:00,99.5,55.1,30.04,SE,135,0.8,9.8,23,0.00,,,0.00,WUHU215HW,2013-05-14 19:54:00,
2013-05-14 14:55:00,99.5,55.2,30.04,SE,135,0.8,9.8,23,0.00,,,0.00,WUHU215HW,2013-05-14 19:55:00,
2013-05-14 14:56:00,99.6,55.2,30.04,SW,225,13.6,13.6,23,0.00,,,0.00,WUHU215HW,2013-05-14 19:56:00,
2013-05-14 14:57:00,99.6,55.2,30.04,SW,225,13.6,13.6,23,0.00,,,0.00,WUHU215HW,2013-05-14 19:57:00,
2013-05-14 14:58:00,99.4,55.1,30.04,SW,225,13.6,13.6,23,0.00,,,0.00,WUHU215HW,2013-05-14 19:58:00,
2013-05-14 15:00:00,99.7,55.3,30.04,WSW,248,13.6,13.6,23,0.00,,,0.00,WUHU215HW,2013-05-14 20:00:00,
2013-05-14 15:02:00,99.8,55.4,30.04,WSW,245,9.4,13.6,23,0.00,,,0.00,WUHU215HW,2013-05-14 20:02:00,
2013-05-14 15:05:00,100.0,56.7,30.04,WSW,248,6.2,13.6,24,0.00,,,0.00,WUHU215HW,2013-05-14 20:05:00,
2013-05-14 15:06:00,100.0,56.7,30.04,WNW,293,6.4,13.6,24,0.00,,,0.00,WUHU215HW,2013-05-14 20:06:00,
2013-05-14 15:07:00,100.1,55.6,30.04,WNW,293,6.4,13.6,23,0.00,,,0.00,WUHU215HW,2013-05-14 20:07:00,
2013-05-14 15:08:00,100.1,55.6,30.04,WNW,293,6.4,13.6,23,0.00,,,0.00,WUHU215HW,2013-05-14 20:08:00,
2013-05-14 15:10:00,100.2,55.7,30.04,SSW,203,7.3,13.6,23,0.00,,,0.00,WUHU215HW,2013-05-14 20:10:00,
2013-05-14 15:11:00,100.2,55.8,30.04,South,189,6.5,13.6,23,0.00,,,0.00,WUHU215HW,2013-05-14 20:11:00,
2013-05-14 15:13:00,100.3,55.8,30.04,West,270,5.3,7.3,23,0.00,,,0.00,WUHU215HW,2013-05-14 20:13:00,
2013-05-14 15:16:00,100.5,56.0,30.04,West,263,2.5,7.3,23,0.00,,,0.00,WUHU215HW,2013-05-14 20:16:00,
2013-05-14 15:17:00,100.5,56.0,30.04,WSW,248,1.1,7.3,23,0.00,,,0.00,WUHU215HW,2013-05-14 20:17:00,
2013-05-14 15:18:00,100.6,56.0,30.04,WSW,248,1.1,7.3,23,0.00,,,0.00,WUHU215HW,2013-05-14 20:18:00,
2013-05-14 15:21:00,100.7,56.2,30.04,SW,219,7.8,9.8,23,0.00,,,0.00,WUHU215HW,2013-05-14 20:21:00,
2013-05-14 15:22:00,100.8,56.2,30.04,West,270,7.3,9.8,23,0.00,,,0.00,WUHU215HW,2013-05-14 20:22:00,
2013-05-14 15:26:00,100.8,55.0,30.04,South,180,1.1,9.8,22,0.00,,,0.00,WUHU215HW,2013-05-14 20:26:00,
2013-05-14 15:27:00,100.8,55.0,30.04,South,180,1.1,9.8,22,0.00,,,0.00,WUHU215HW,2013-05-14 20:27:00,
2013-05-14 15:28:00,100.9,55.1,30.04,South,180,6.2,9.8,22,0.00,,,0.00,WUHU215HW,2013-05-14 20:28:00,
2013-05-14 15:30:00,100.8,55.0,30.04,WSW,248,6.4,9.8,22,0.00,,,0.00,WUHU215HW,2013-05-14 20:30:00,
2013-05-14 15:32:00,100.5,54.7,30.04,WSW,244,5.0,7.3,22,0.00,,,0.00,WUHU215HW,2013-05-14 20:32:00,
2013-05-14 15:33:00,100.5,54.8,30.04,WSW,238,3.7,7.3,22,0.00,,,0.00,WUHU215HW,2013-05-14 20:33:00,
2013-05-14 15:34:00,100.6,54.8,30.04,SW,225,2.4,6.4,22,0.00,,,0.00,WUHU215HW,2013-05-14 20:34:00,
2013-05-14 15:37:00,100.6,54.9,30.04,SW,225,2.4,6.4,22,0.00,,,0.00,WUHU215HW,2013-05-14 20:37:00,
2013-05-14 15:39:00,100.5,56.0,30.04,South,180,6.2,6.4,23,0.00,,,0.00,WUHU215HW,2013-05-14 20:39:00,
2013-05-14 15:41:00,100.6,56.1,30.04,South,180,6.2,6.4,23,0.00,,,0.00,WUHU215HW,2013-05-14 20:41:00,
2013-05-14 15:42:00,100.7,56.1,30.04,South,180,6.2,6.2,23,0.00,,,0.00,WUHU215HW,2013-05-14 20:42:00,
2013-05-14 15:45:00,100.6,56.1,30.04,WSW,248,5.7,6.2,23,0.00,,,0.00,WUHU215HW,2013-05-14 20:45:00,
2013-05-14 15:46:00,100.7,56.1,30.04,WSW,248,5.1,6.2,23,0.00,,,0.00,WUHU215HW,2013-05-14 20:46:00,
2013-05-14 15:47:00,100.7,56.2,30.04,WSW,248,4.6,6.2,23,0.00,,,0.00,WUHU215HW,2013-05-14 20:47:00,
2013-05-14 15:48:00,100.8,56.2,30.04,WSW,248,4.6,6.2,23,0.00,,,0.00,WUHU215HW,2013-05-14 20:48:00,
2013-05-14 15:50:00,100.4,54.6,30.04,WSW,248,6.7,6.7,22,0.00,,,0.00,WUHU215HW,2013-05-14 20:50:00,
2013-05-14 15:51:00,100.4,54.7,30.04,WSW,248,6.7,6.7,22,0.00,,,0.00,WUHU215HW,2013-05-14 20:51:00,
2013-05-14 15:53:00,100.3,54.6,30.04,SSE,158,6.2,6.7,22,0.00,,,0.00,WUHU215HW,2013-05-14 20:53:00,
2013-05-14 15:56:00,100.1,55.6,30.04,SSE,158,7.8,7.8,23,0.00,,,0.00,WUHU215HW,2013-05-14 20:56:00,
2013-05-14 15:59:00,100.0,55.6,30.04,SSE,149,4.1,7.8,23,0.00,,,0.00,WUHU215HW,2013-05-14 20:59:00,
2013-05-14 16:01:00,99.8,55.4,30.04,SSW,203,2.2,7.8,23,0.00,,,0.00,WUHU215HW,2013-05-14 21:01:00,
2013-05-14 16:03:00,99.7,55.3,30.04,WSW,248,3.3,7.8,23,0.00,,,0.00,WUHU215HW,2013-05-14 21:03:00,
2013-05-14 16:04:00,99.8,55.4,30.04,WSW,246,2.2,7.8,23,0.00,,,0.00,WUHU215HW,2013-05-14 21:04:00,
2013-05-14 16:06:00,99.9,56.6,30.04,SSW,203,0.2,7.8,24,0.00,,,0.00,WUHU215HW,2013-05-14 21:06:00,
2013-05-14 16:09:00,99.6,56.4,30.04,West,270,5.8,5.8,24,0.00,,,0.00,WUHU215HW,2013-05-14 21:09:00,
2013-05-14 16:13:00,98.9,55.8,30.04,WSW,248,5.3,5.8,24,0.00,,,0.00,WUHU215HW,2013-05-14 21:13:00,
2013-05-14 16:14:00,98.8,55.7,30.04,WSW,248,5.3,5.8,24,0.00,,,0.00,WUHU215HW,2013-05-14 21:14:00,
2013-05-14 16:18:00,97.9,55.0,30.04,South,180,11.4,11.4,24,0.00,,,0.00,WUHU215HW,2013-05-14 21:18:00,
2013-05-14 16:19:00,97.8,54.9,30.04,South,177,8.6,11.4,24,0.00,,,0.00,WUHU215HW,2013-05-14 21:19:00,
2013-05-14 16:22:00,97.5,54.6,30.04,WSW,248,7.1,11.4,24,0.00,,,0.00,WUHU215HW,2013-05-14 21:22:00,
2013-05-14 16:23:00,97.2,54.4,30.04,WSW,248,7.1,11.4,24,0.00,,,0.00,WUHU215HW,2013-05-14 21:23:00,
2013-05-14 16:25:00,97.1,54.3,30.04,West,261,5.5,11.4,24,0.00,,,0.00,WUHU215HW,2013-05-14 21:25:00,
2013-05-14 16:28:00,96.7,55.1,30.04,WSW,248,3.5,11.4,25,0.00,,,0.00,WUHU215HW,2013-05-14 21:28:00,
2013-05-14 16:30:00,96.4,54.8,30.04,WSW,248,1.9,7.1,25,0.00,,,0.00,WUHU215HW,2013-05-14 21:30:00,
2013-05-14 16:31:00,96.3,54.8,30.04,WSW,248,1.1,7.1,25,0.00,,,0.00,WUHU215HW,2013-05-14 21:31:00,
2013-05-14 16:34:00,96.2,54.6,30.04,West,269,7.0,10.2,25,0.00,,,0.00,WUHU215HW,2013-05-14 21:34:00,
2013-05-14 16:37:00,95.7,54.2,30.04,WSW,248,3.8,10.2,25,0.00,,,0.00,WUHU215HW,2013-05-14 21:37:00,
2013-05-14 16:38:00,95.4,54.0,30.04,WSW,248,3.8,10.2,25,0.00,,,0.00,WUHU215HW,2013-05-14 21:38:00,
2013-05-14 16:42:00,95.2,53.8,30.04,WSW,248,2.1,10.2,25,0.00,,,0.00,WUHU215HW,2013-05-14 21:42:00,
2013-05-14 16:43:00,94.9,53.5,30.04,WSW,248,3.3,10.2,25,0.00,,,0.00,WUHU215HW,2013-05-14 21:43:00,
2013-05-14 16:46:00,94.8,53.4,30.04,WSW,248,3.3,3.8,25,0.00,,,0.00,WUHU215HW,2013-05-14 21:46:00,
2013-05-14 16:47:00,94.7,53.4,30.04,WSW,248,3.5,3.8,25,0.00,,,0.00,WUHU215HW,2013-05-14 21:47:00,
2013-05-14 16:49:00,94.6,53.3,30.04,WSW,248,3.5,3.8,25,0.00,,,0.00,WUHU215HW,2013-05-14 21:49:00,
2013-05-14 16:51:00,94.4,53.1,30.04,WSW,248,10.7,10.7,25,0.00,,,0.00,WUHU215HW,2013-05-14 21:51:00,
2013-05-14 16:52:00,94.3,53.1,30.04,WSW,248,10.0,10.7,25,0.00,,,0.00,WUHU215HW,2013-05-14 21:52:00,
2013-05-14 16:53:00,94.3,53.0,30.04,WSW,248,8.0,10.7,25,0.00,,,0.00,WUHU215HW,2013-05-14 21:53:00,
2013-05-14 16:55:00,93.8,52.6,30.04,WSW,248,4.6,10.7,25,0.00,,,0.00,WUHU215HW,2013-05-14 21:55:00,
2013-05-14 16:56:00,93.8,52.6,30.04,WSW,248,13.6,13.6,25,0.00,,,0.00,WUHU215HW,2013-05-14 21:56:00,
2013-05-14 17:00:00,93.6,52.5,30.04,WSW,248,5.5,13.6,25,0.00,,,0.00,WUHU215HW,2013-05-14 22:00:00,
2013-05-14 17:01:00,93.6,52.5,30.04,WSW,248,5.5,13.6,25,0.00,,,0.00,WUHU215HW,2013-05-14 22:01:00,
2013-05-14 17:02:00,93.6,52.4,30.04,WSW,243,4.5,13.6,25,0.00,,,0.00,WUHU215HW,2013-05-14 22:02:00,
2013-05-14 17:05:00,93.4,53.3,30.04,SSE,158,2.0,13.6,26,0.00,,,0.00,WUHU215HW,2013-05-14 22:05:00,
2013-05-14 17:07:00,93.1,53.1,30.04,South,170,1.5,13.6,26,0.00,,,0.00,WUHU215HW,2013-05-14 22:07:00,
2013-05-14 17:12:00,93.0,53.0,30.04,SSW,203,4.6,4.6,26,0.00,,,0.00,WUHU215HW,2013-05-14 22:12:00,
2013-05-14 17:13:00,92.8,52.8,30.04,SSW,203,4.6,4.6,26,0.00,,,0.00,WUHU215HW,2013-05-14 22:13:00,
2013-05-14 17:14:00,92.8,52.8,30.04,SSW,203,4.6,4.6,26,0.00,,,0.00,WUHU215HW,2013-05-14 22:14:00,
2013-05-14 17:15:00,92.7,52.8,30.04,SSW,203,4.6,4.6,26,0.00,,,0.00,WUHU215HW,2013-05-14 22:15:00,
2013-05-14 17:18:00,92.7,52.7,30.04,SW,225,6.7,6.7,26,0.00,,,0.00,WUHU215HW,2013-05-14 22:18:00,
2013-05-14 17:19:00,92.7,52.7,30.04,SW,225,6.7,6.7,26,0.00,,,0.00,WUHU215HW,2013-05-14 22:19:00,
2013-05-14 17:20:00,92.7,52.7,30.04,SW,225,6.7,6.7,26,0.00,,,0.00,WUHU215HW,2013-05-14 22:20:00,
2013-05-14 17:21:00,92.6,52.7,30.04,SW,225,6.7,6.7,26,0.00,,,0.00,WUHU215HW,2013-05-14 22:21:00,
2013-05-14 17:23:00,92.6,52.7,30.04,SW,225,6.7,6.7,26,0.00,,,0.00,WUHU215HW,2013-05-14 22:23:00,
2013-05-14 17:27:00,92.2,52.3,30.04,SW,225,6.7,6.7,26,0.00,,,0.00,WUHU215HW,2013-05-14 22:27:00,
2013-05-14 17:28:00,92.1,52.3,30.04,SW,225,6.7,6.7,26,0.00,,,0.00,WUHU215HW,2013-05-14 22:28:00,
2013-05-14 17:29:00,92.1,52.3,30.04,SW,225,6.7,6.7,26,0.00,,,0.00,WUHU215HW,2013-05-14 22:29:00,
2013-05-14 17:30:00,92.1,52.2,30.04,SW,225,6.7,6.7,26,0.00,,,0.00,WUHU215HW,2013-05-14 22:30:00,
2013-05-14 17:32:00,92.1,52.2,30.04,SW,225,6.7,6.7,26,0.00,,,0.00,WUHU215HW,2013-05-14 22:32:00,
2013-05-14 17:33:00,92.1,52.2,30.04,SW,225,6.7,6.7,26,0.00,,,0.00,WUHU215HW,2013-05-14 22:33:00,
2013-05-14 17:35:00,91.8,52.0,30.04,SSW,203,8.7,8.7,26,0.00,,,0.00,WUHU215HW,2013-05-14 22:35:00,
2013-05-14 17:36:00,91.8,52.0,30.04,SSW,203,8.7,8.7,26,0.00,,,0.00,WUHU215HW,2013-05-14 22:36:00,
2013-05-14 17:38:00,91.8,52.0,30.04,WSW,248,10.0,10.0,26,0.00,,,0.00,WUHU215HW,2013-05-14 22:38:00,
2013-05-14 17:39:00,91.8,52.0,30.04,WSW,248,10.0,10.0,26,0.00,,,0.00,WUHU215HW,2013-05-14 22:39:00,
2013-05-14 17:42:00,91.8,53.0,30.04,WSW,248,10.0,10.0,27,0.00,,,0.00,WUHU215HW,2013-05-14 22:42:00,
2013-05-14 17:43:00,91.8,53.0,30.04,WSW,242,8.7,10.0,27,0.00,,,0.00,WUHU215HW,2013-05-14 22:43:00,
2013-05-14 17:46:00,91.8,53.0,30.04,SW,225,6.4,10.0,27,0.00,,,0.00,WUHU215HW,2013-05-14 22:46:00,
2013-05-14 17:47:00,91.8,53.0,30.04,SW,225,6.4,10.0,27,0.00,,,0.00,WUHU215HW,2013-05-14 22:47:00,
2013-05-14 17:49:00,91.9,53.0,30.04,SW,225,6.4,10.0,27,0.00,,,0.00,WUHU215HW,2013-05-14 22:49:00,
2013-05-14 17:51:00,91.9,53.0,30.04,SW,222,4.9,10.0,27,0.00,,,0.00,WUHU215HW,2013-05-14 22:51:00,
2013-05-14 17:52:00,91.9,53.1,30.04,SW,216,3.4,10.0,27,0.00,,,0.00,WUHU215HW,2013-05-14 22:52:00,
2013-05-14 17:56:00,91.9,53.1,30.04,SSW,203,2.6,6.4,27,0.00,,,0.00,WUHU215HW,2013-05-14 22:56:00,
2013-05-14 17:57:00,92.0,53.1,30.04,SSW,203,2.6,6.4,27,0.00,,,0.00,WUHU215HW,2013-05-14 22:57:00,
2013-05-14 17:58:00,92.0,53.1,30.04,SSW,203,2.6,6.4,27,0.00,,,0.00,WUHU215HW,2013-05-14 22:58:00,
2013-05-14 18:01:00,92.0,53.2,30.04,SE,135,1.1,2.6,27,0.00,,,0.00,WUHU215HW,2013-05-14 23:01:00,
2013-05-14 18:03:00,92.1,53.2,30.04,SE,135,1.1,2.6,27,0.00,,,0.00,WUHU215HW,2013-05-14 23:03:00,
2013-05-14 18:04:00,92.1,53.2,30.04,SE,135,1.1,2.6,27,0.00,,,0.00,WUHU215HW,2013-05-14 23:04:00,
2013-05-14 18:07:00,92.2,53.3,30.04,SE,135,1.1,2.6,27,0.00,,,0.00,WUHU215HW,2013-05-14 23:07:00,
2013-05-14 18:08:00,92.0,53.1,30.04,SE,135,1.1,2.6,27,0.00,,,0.00,WUHU215HW,2013-05-14 23:08:00,
2013-05-14 18:09:00,92.0,53.2,30.04,SE,135,1.1,1.1,27,0.00,,,0.00,WUHU215HW,2013-05-14 23:09:00,
2013-05-14 18:10:00,92.0,53.2,30.04,SE,135,1.1,1.1,27,0.00,,,0.00,WUHU215HW,2013-05-14 23:10:00,
2013-05-14 18:12:00,92.1,53.2,30.04,SE,135,1.1,1.1,27,0.00,,,0.00,WUHU215HW,2013-05-14 23:12:00,
2013-05-14 18:15:00,91.7,51.9,30.04,West,270,0.8,1.1,26,0.00,,,0.00,WUHU215HW,2013-05-14 23:15:00,
2013-05-14 18:17:00,91.8,52.9,30.04,SE,135,2.6,2.6,27,0.00,,,0.00,WUHU215HW,2013-05-14 23:17:00,
2013-05-14 18:22:00,91.7,52.9,30.04,SE,135,2.6,2.6,27,0.00,,,0.00,WUHU215HW,2013-05-14 23:22:00,
2013-05-14 18:23:00,91.8,53.0,30.04,SSE,152,1.4,2.6,27,0.00,,,0.00,WUHU215HW,2013-05-14 23:23:00,
2013-05-14 18:24:00,91.8,53.0,30.04,SSE,167,1.0,2.6,27,0.00,,,0.00,WUHU215HW,2013-05-14 23:24:00,
2013-05-14 18:27:00,91.7,52.9,30.04,SW,225,0.8,2.6,27,0.00,,,0.00,WUHU215HW,2013-05-14 23:27:00,
2013-05-14 18:29:00,91.8,53.0,30.04,SE,135,2.2,2.6,27,0.00,,,0.00,WUHU215HW,2013-05-14 23:29:00,
2013-05-14 18:31:00,91.9,53.0,30.04,SE,135,2.2,2.6,27,0.00,,,0.00,WUHU215HW,2013-05-14 23:31:00,
2013-05-14 18:32:00,91.9,53.1,30.04,SE,135,2.2,2.6,27,0.00,,,0.00,WUHU215HW,2013-05-14 23:32:00,
2013-05-14 18:33:00,92.0,53.1,30.04,SE,135,2.2,2.2,27,0.00,,,0.00,WUHU215HW,2013-05-14 23:33:00,
2013-05-14 18:35:00,91.8,54.0,30.04,SSW,203,8.0,8.0,28,0.00,,,0.00,WUHU215HW,2013-05-14 23:35:00,
2013-05-14 18:36:00,91.9,54.0,30.04,SSW,203,8.0,8.0,28,0.00,,,0.00,WUHU215HW,2013-05-14 23:36:00,
2013-05-14 18:41:00,91.8,54.0,30.04,WSW,248,25.5,25.5,28,0.00,,,0.00,WUHU215HW,2013-05-14 23:41:00,
2013-05-14 18:42:00,91.9,54.0,30.04,WSW,248,25.5,25.5,28,0.00,,,0.00,WUHU215HW,2013-05-14 23:42:00,
2013-05-14 18:44:00,92.0,54.1,30.04,WSW,248,25.5,25.5,28,0.00,,,0.00,WUHU215HW,2013-05-14 23:44:00,
2013-05-14 18:45:00,92.0,54.1,30.04,WSW,248,25.5,25.5,28,0.00,,,0.00,WUHU215HW,2013-05-14 23:45:00,
2013-05-14 18:47:00,91.9,54.1,30.04,WSW,250,9.3,25.5,28,0.00,,,0.00,WUHU215HW,2013-05-14 23:47:00,
2013-05-14 18:49:00,92.0,54.1,30.04,West,270,1.3,25.5,28,0.00,,,0.00,WUHU215HW,2013-05-14 23:49:00,
2013-05-14 18:50:00,91.9,53.0,30.04,West,270,1.3,25.5,27,0.00,,,0.00,WUHU215HW,2013-05-14 23:50:00,
2013-05-14 18:53:00,92.0,53.2,30.04,WSW,248,2.2,25.5,27,0.00,,,0.00,WUHU215HW,2013-05-14 23:53:00,
2013-05-14 18:56:00,91.8,52.9,30.04,WSW,248,2.2,2.2,27,0.00,,,0.00,WUHU215HW,2013-05-14 23:56:00,
2013-05-14 18:57:00,91.8,53.0,30.04,WSW,248,2.2,2.2,27,0.00,,,0.00,WUHU215HW,2013-05-14 23:57:00,
2013-05-14 18:58:00,91.9,53.0,30.04,WSW,248,2.2,2.2,27,0.00,,,0.00,WUHU215HW,2013-05-14 23:58:00,
2013-05-14 19:00:00,92.0,54.1,30.04,WSW,248,2.6,2.6,28,0.00,,,0.00,WUHU215HW,2013-05-15 00:00:00,
2013-05-14 19:01:00,92.0,54.2,30.04,SW,232,2.0,2.6,28,0.00,,,0.00,WUHU215HW,2013-05-15 00:01:00,
2013-05-14 19:02:00,92.1,54.2,30.04,SSW,209,1.7,2.6,28,0.00,,,0.00,WUHU215HW,2013-05-15 00:02:00,
2013-05-14 19:06:00,91.6,53.8,30.04,South,180,2.0,2.6,28,0.00,,,0.00,WUHU215HW,2013-05-15 00:06:00,
2013-05-14 19:08:00,91.4,53.6,30.04,SE,135,3.1,3.1,28,0.00,,,0.00,WUHU215HW,2013-05-15 00:08:00,
2013-05-14 19:10:00,91.2,53.4,30.04,SE,135,3.1,3.1,28,0.00,,,0.00,WUHU215HW,2013-05-15 00:10:00,
2013-05-14 19:13:00,90.6,53.4,30.04,SSW,203,5.5,5.5,28,0.00,,,0.00,WUHU215HW,2013-05-15 00:13:00,
2013-05-14 19:15:00,90.6,53.4,30.04,SSW,203,5.5,5.5,28,0.00,,,0.00,WUHU215HW,2013-05-15 00:15:00,
2013-05-14 19:18:00,90.6,53.4,30.04,SSW,203,5.5,5.5,28,0.00,,,0.00,WUHU215HW,2013-05-15 00:18:00,
2013-05-14 19:20:00,90.6,53.4,30.04,SSW,203,5.5,5.5,28,0.00,,,0.00,WUHU215HW,2013-05-15 00:20:00,
2013-05-14 19:22:00,89.9,53.4,30.04,SW,216,5.0,5.5,28,0.00,,,0.00,WUHU215HW,2013-05-15 00:22:00,
2013-05-14 19:23:00,89.9,53.4,30.04,WSW,248,4.9,5.5,28,0.00,,,0.00,WUHU215HW,2013-05-15 00:23:00,
2013-05-14 19:26:00,89.6,53.0,30.04,WSW,248,4.9,5.5,29,0.00,,,0.00,WUHU215HW,2013-05-15 00:26:00,
2013-05-14 19:27:00,89.4,52.8,30.04,WSW,248,5.5,5.5,29,0.00,,,0.00,WUHU215HW,2013-05-15 00:27:00,
2013-05-14 19:31:00,89.4,52.8,30.04,WSW,248,5.5,5.5,29,0.00,,,0.00,WUHU215HW,2013-05-15 00:31:00,
2013-05-14 19:32:00,89.4,52.8,30.04,WSW,248,5.5,5.5,29,0.00,,,0.00,WUHU215HW,2013-05-15 00:32:00,
2013-05-14 19:33:00,89.2,52.7,30.04,WSW,246,3.6,5.5,29,0.00,,,0.00,WUHU215HW,2013-05-15 00:33:00,
2013-05-14 19:35:00,89.2,52.7,30.04,WSW,248,2.6,5.5,29,0.00,,,0.00,WUHU215HW,2013-05-15 00:35:00,
2013-05-14 19:36:00,89.2,52.7,30.04,WSW,248,2.6,5.5,29,0.00,,,0.00,WUHU215HW,2013-05-15 00:36:00,
2013-05-14 19:42:00,88.8,52.4,30.04,SSE,163,2.0,5.5,29,0.00,,,0.00,WUHU215HW,2013-05-15 00:42:00,
2013-05-14 19:43:00,88.8,52.4,30.04,WSW,248,0.4,4.0,29,0.00,,,0.00,WUHU215HW,2013-05-15 00:43:00,
2013-05-14 19:44:00,88.5,52.0,30.04,WSW,248,0.4,4.0,29,0.00,,,0.00,WUHU215HW,2013-05-15 00:44:00,
2013-05-14 19:48:00,88.3,51.9,30.04,SW,225,7.3,7.3,29,0.00,,,0.00,WUHU215HW,2013-05-15 00:48:00,
2013-05-14 19:49:00,88.3,51.9,30.04,SW,225,7.3,7.3,29,0.00,,,0.00,WUHU215HW,2013-05-15 00:49:00,
2013-05-14 19:50:00,88.3,51.9,30.04,SW,225,7.3,7.3,29,0.00,,,0.00,WUHU215HW,2013-05-15 00:50:00,
2013-05-14 19:55:00,87.8,51.9,30.04,SSW,203,6.0,7.3,31,0.00,,,0.00,WUHU215HW,2013-05-15 00:55:00,
2013-05-14 19:56:00,87.8,51.9,30.04,SSW,203,6.0,7.3,31,0.00,,,0.00,WUHU215HW,2013-05-15 00:56:00,
2013-05-14 19:57:00,87.6,51.9,30.04,SSW,194,4.3,7.3,31,0.00,,,0.00,WUHU215HW,2013-05-15 00:57:00,
2013-05-14 20:01:00,87.0,51.9,30.04,SSE,158,3.3,7.3,30,0.00,,,0.00,WUHU215HW,2013-05-15 01:01:00,
2013-05-14 20:02:00,87.0,51.9,30.04,SSE,158,3.3,6.0,30,0.00,,,0.00,WUHU215HW,2013-05-15 01:02:00,
2013-05-14 20:04:00,86.9,51.8,30.04,WSW,248,10.0,10.0,30,0.00,,,0.00,WUHU215HW,2013-05-15 01:04:00,
2013-05-14 20:05:00,86.9,51.8,30.04,WSW,248,10.0,10.0,30,0.00,,,0.00,WUHU215HW,2013-05-15 01:05:00,
2013-05-14 20:07:00,86.5,52.3,30.04,SSE,158,7.6,10.0,31,0.00,,,0.00,WUHU215HW,2013-05-15 01:07:00,
2013-05-14 20:10:00,86.5,52.3,30.04,SW,225,2.2,10.0,31,0.00,,,0.00,WUHU215HW,2013-05-15 01:10:00,
2013-05-14 20:11:00,86.5,52.3,30.04,SW,225,2.2,10.0,31,0.00,,,0.00,WUHU215HW,2013-05-15 01:11:00,
2013-05-14 20:12:00,86.3,52.1,30.04,SW,225,2.2,10.0,31,0.00,,,0.00,WUHU215HW,2013-05-15 01:12:00,
2013-05-14 20:15:00,86.1,52.1,30.04,SW,225,2.2,10.0,31,0.00,,,0.00,WUHU215HW,2013-05-15 01:15:00,
2013-05-14 20:17:00,86.1,52.8,30.04,South,180,2.0,7.6,32,0.00,,,0.00,WUHU215HW,2013-05-15 01:17:00,
2013-05-14 20:18:00,86.0,51.8,30.04,WSW,248,5.5,5.5,31,0.00,,,0.00,WUHU215HW,2013-05-15 01:18:00,
2013-05-14 20:24:00,85.8,52.5,30.04,SSW,203,7.8,7.8,32,0.00,,,0.00,WUHU215HW,2013-05-15 01:24:00,
2013-05-14 20:25:00,85.8,52.5,30.04,SSW,203,5.8,7.8,32,0.00,,,0.00,WUHU215HW,2013-05-15 01:25:00,
2013-05-14 20:30:00,85.8,52.5,30.04,WSW,248,0.8,7.8,32,0.00,,,0.00,WUHU215HW,2013-05-15 01:30:00,
2013-05-14 20:31:00,85.8,52.5,30.04,WSW,248,3.8,7.8,32,0.00,,,0.00,WUHU215HW,2013-05-15 01:31:00,
2013-05-14 20:41:00,85.6,52.5,30.04,WSW,248,3.1,3.1,31,0.00,,,0.00,WUHU215HW,2013-05-15 01:41:00,
2013-05-14 20:42:00,85.6,50.7,30.04,SW,225,11.4,11.4,30,0.00,,,0.00,WUHU215HW,2013-05-15 01:42:00,
2013-05-14 20:50:00,85.8,50.9,30.04,WSW,248,3.8,11.4,30,0.00,,,0.00,WUHU215HW,2013-05-15 01:50:00,
2013-05-14 20:51:00,85.8,50.9,30.04,WSW,248,3.8,11.4,30,0.00,,,0.00,WUHU215HW,2013-05-15 01:51:00,
2013-05-14 20:52:00,85.6,50.9,30.04,WSW,248,3.8,11.4,30,0.00,,,0.00,WUHU215HW,2013-05-15 01:52:00,
2013-05-14 20:53:00,85.6,50.9,30.04,WSW,248,3.8,11.4,30,0.00,,,0.00,WUHU215HW,2013-05-15 01:53:00,
2013-05-14 20:56:00,85.6,50.9,30.04,WSW,248,3.8,3.8,31,0.00,,,0.00,WUHU215HW,2013-05-15 01:56:00,
2013-05-14 20:58:00,85.4,50.9,30.04,West,270,3.3,3.8,32,0.00,,,0.00,WUHU215HW,2013-05-15 01:58:00,
2013-05-14 20:59:00,85.4,52.1,30.04,West,259,2.4,3.8,32,0.00,,,0.00,WUHU215HW,2013-05-15 01:59:00,
2013-05-14 21:01:00,85.1,52.1,30.04,SSW,203,1.5,3.8,33,0.00,,,0.00,WUHU215HW,2013-05-15 02:01:00,
2013-05-14 21:03:00,84.9,52.4,30.04,SW,225,1.7,3.8,33,0.00,,,0.00,WUHU215HW,2013-05-15 02:03:00,
2013-05-14 21:05:00,84.9,52.4,30.04,SW,225,1.7,3.3,33,0.00,,,0.00,WUHU215HW,2013-05-15 02:05:00,
2013-05-14 21:07:00,84.9,52.4,30.04,SW,225,1.7,3.3,33,0.00,,,0.00,WUHU215HW,2013-05-15 02:07:00,
2013-05-14 21:09:00,84.9,52.4,30.04,South,180,5.3,5.3,33,0.00,,,0.00,WUHU215HW,2013-05-15 02:09:00,
2013-05-14 21:10:00,84.5,52.9,30.04,South,180,5.3,5.3,34,0.00,,,0.00,WUHU215HW,2013-05-15 02:10:00,
2013-05-14 21:12:00,84.5,52.9,30.04,WSW,248,4.6,5.3,34,0.00,,,0.00,WUHU215HW,2013-05-15 02:12:00,
2013-05-14 21:14:00,84.5,52.9,30.04,WSW,248,4.6,5.3,34,0.00,,,0.00,WUHU215HW,2013-05-15 02:14:00,
2013-05-14 21:15:00,84.5,52.9,30.04,WSW,248,4.6,5.3,34,0.00,,,0.00,WUHU215HW,2013-05-15 02:15:00,
2013-05-14 21:16:00,84.0,53.2,30.04,WSW,248,4.6,5.3,35,0.00,,,0.00,WUHU215HW,2013-05-15 02:16:00,
2013-05-14 21:17:00,84.0,53.2,30.04,WSW,248,4.6,5.3,35,0.00,,,0.00,WUHU215HW,2013-05-15 02:17:00,
2013-05-14 21:22:00,83.8,53.8,30.04,SW,225,6.7,6.7,36,0.00,,,0.00,WUHU215HW,2013-05-15 02:22:00,
2013-05-14 21:23:00,83.8,53.8,30.04,SW,225,6.7,6.7,36,0.00,,,0.00,WUHU215HW,2013-05-15 02:23:00,
2013-05-14 21:26:00,83.4,53.8,30.04,SW,235,4.1,6.7,37,0.00,,,0.00,WUHU215HW,2013-05-15 02:26:00,
2013-05-14 21:28:00,83.4,54.3,30.04,WSW,248,2.9,6.7,37,0.00,,,0.00,WUHU215HW,2013-05-15 02:28:00,
2013-05-14 21:29:00,83.3,54.3,30.04,WSW,248,2.9,6.7,37,0.00,,,0.00,WUHU215HW,2013-05-15 02:29:00,
2013-05-14 21:30:00,83.3,54.3,30.04,WSW,248,2.9,6.7,37,0.00,,,0.00,WUHU215HW,2013-05-15 02:30:00,
2013-05-14 21:31:00,83.3,54.3,30.04,WSW,248,2.9,6.7,37,0.00,,,0.00,WUHU215HW,2013-05-15 02:31:00,
2013-05-14 21:34:00,83.3,54.3,30.04,WSW,248,2.9,6.7,37,0.00,,,0.00,WUHU215HW,2013-05-15 02:34:00,
2013-05-14 21:35:00,83.3,54.3,30.04,WSW,248,4.2,4.2,37,0.00,,,0.00,WUHU215HW,2013-05-15 02:35:00,
2013-05-14 21:36:00,83.3,54.3,30.04,WSW,248,4.2,4.2,37,0.00,,,0.00,WUHU215HW,2013-05-15 02:36:00,
2013-05-14 21:41:00,82.5,54.3,30.04,SW,225,6.4,6.4,37,0.00,,,0.00,WUHU215HW,2013-05-15 02:41:00,
2013-05-14 21:42:00,82.5,54.3,30.04,SW,225,6.4,6.4,37,0.00,,,0.00,WUHU215HW,2013-05-15 02:42:00,
2013-05-14 21:48:00,82.5,54.3,30.04,WSW,248,1.3,6.4,37,0.00,,,0.00,WUHU215HW,2013-05-15 02:48:00,
2013-05-14 21:51:00,82.5,53.5,30.04,WSW,248,1.3,6.4,37,0.00,,,0.00,WUHU215HW,2013-05-15 02:51:00,
2013-05-14 21:52:00,82.5,53.5,30.04,WSW,248,1.3,6.4,37,0.00,,,0.00,WUHU215HW,2013-05-15 02:52:00,
2013-05-14 21:57:00,81.5,53.5,30.04,ESE,113,1.7,1.7,37,0.00,,,0.00,WUHU215HW,2013-05-15 02:57:00,
2013-05-14 21:58:00,81.5,53.5,30.04,ESE,113,1.7,1.7,37,0.00,,,0.00,WUHU215HW,2013-05-15 02:58:00,
2013-05-14 22:00:00,81.5,55.5,30.04,West,270,0.6,1.7,41,0.00,,,0.00,WUHU215HW,2013-05-15 03:00:00,
2013-05-14 22:05:00,81.1,55.2,30.04,WSW,248,2.2,2.2,41,0.00,,,0.00,WUHU215HW,2013-05-15 03:05:00,